| time (UTC) | temp C | wind direction | speed KPH | gust KPH | rain 1hr cm | rain 24hr cm | rain mn cm | humidity % | barometer mb |
| 20260503214022 | 15 | 194 | 0.0 | 6.4 | 0.00 | 0.00 | 0.00 | 53 | 1015.3 |
| 20260503213922 | 15 | 194 | 0.0 | 6.4 | 0.00 | 0.00 | 0.00 | 53 | 1015.2 |
| 20260503213822 | 15 | 191 | 0.0 | 6.4 | 0.00 | 0.00 | 0.00 | 53 | 1015.2 |
| 20260503213721 | 15 | 191 | 0.0 | 6.4 | 0.00 | 0.00 | 0.00 | 52 | 1015.2 |
| 20260503213623 | 16 | 192 | 0.0 | 6.4 | 0.00 | 0.00 | 0.00 | 52 | 1015.3 |
| 20260503213556 | 16 | 196 | 0.0 | 6.4 | 0.00 | 0.00 | 0.00 | 52 | 1015.2 |
| 20260503213540 | 16 | 184 | 0.0 | 6.4 | 0.00 | 0.00 | 0.00 | 52 | 1015.3 |
| 20260503213526 | 16 | 222 | 0.0 | 6.4 | 0.00 | 0.00 | 0.00 | 52 | 1015.3 |
| 20260503213518 | 16 | 200 | 0.0 | 6.4 | 0.00 | 0.00 | 0.00 | 52 | 1015.5 |
| 20260503213239 | 16 | 181 | 0.0 | 6.4 | 0.00 | 0.00 | 0.00 | 52 | 1015.1 |
| 20260503213223 | 16 | 213 | 3.2 | 6.4 | 0.00 | 0.00 | 0.00 | 52 | 1015.2 |
| 20260503213207 | 16 | 160 | 0.0 | 3.2 | 0.00 | 0.00 | 0.00 | 52 | 1015.4 |
| 20260503213153 | 16 | 180 | 0.0 | 3.2 | 0.00 | 0.00 | 0.00 | 52 | 1015.4 |
| 20260503212618 | 16 | 152 | 1.6 | 3.2 | 0.00 | 0.00 | 0.00 | 52 | 1015.2 |
| 20260503212515 | 16 | 188 | 0.0 | 3.2 | 0.00 | 0.00 | 0.00 | 52 | 1015.2 |
| 20260503212415 | 16 | 195 | 0.0 | 3.2 | 0.00 | 0.00 | 0.00 | 52 | 1015.2 |
| 20260503212336 | 16 | 199 | 0.0 | 3.2 | 0.00 | 0.00 | 0.00 | 52 | 1015.2 |
| 20260503212317 | 16 | 186 | 0.0 | 3.2 | 0.00 | 0.00 | 0.00 | 52 | 1015.2 |
| 20260503212215 | 16 | 181 | 0.0 | 3.2 | 0.00 | 0.00 | 0.00 | 52 | 1015.3 |
| 20260503212146 | 16 | 186 | 0.0 | 3.2 | 0.00 | 0.00 | 0.00 | 52 | 1015.3 |
| 20260503212129 | 16 | 185 | 0.0 | 3.2 | 0.00 | 0.00 | 0.00 | 52 | 1015.4 |
| 20260503211829 | 16 | 176 | 0.0 | 3.2 | 0.00 | 0.00 | 0.00 | 52 | 1015.3 |
| 20260503211809 | 16 | 230 | 1.6 | 3.2 | 0.00 | 0.00 | 0.00 | 52 | 1015.3 |
| 20260503211709 | 16 | 194 | 0.0 | 3.2 | 0.00 | 0.00 | 0.00 | 52 | 1015.2 |
| 20260503211609 | 16 | 182 | 0.0 | 1.6 | 0.00 | 0.00 | 0.00 | 52 | 1015.4 |
| 20260503211510 | 16 | 193 | 0.0 | 4.8 | 0.00 | 0.00 | 0.00 | 52 | 1015.2 |
| 20260503211456 | 16 | 198 | 0.0 | 4.8 | 0.00 | 0.00 | 0.00 | 52 | 1015.3 |
| 20260503211442 | 16 | 193 | 0.0 | 4.8 | 0.00 | 0.00 | 0.00 | 52 | 1015.3 |
| 20260503211434 | 16 | 196 | 0.0 | 4.8 | 0.00 | 0.00 | 0.00 | 52 | 1015.3 |
| 20260503211109 | 16 | 188 | 0.0 | 4.8 | 0.00 | 0.00 | 0.00 | 52 | 1015.1 |
| 20260503211010 | 16 | 188 | 0.0 | 4.8 | 0.00 | 0.00 | 0.00 | 52 | 1015.3 |
| 20260503210909 | 16 | 190 | 0.0 | 6.4 | 0.00 | 0.00 | 0.00 | 52 | 1015.3 |
| 20260503210829 | 16 | 190 | 0.0 | 6.4 | 0.00 | 0.00 | 0.00 | 53 | 1015.2 |
| 20260503210810 | 16 | 190 | 0.0 | 6.4 | 0.00 | 0.00 | 0.00 | 52 | 1015.2 |
| 20260503210710 | 16 | 193 | 0.0 | 6.4 | 0.00 | 0.00 | 0.00 | 52 | 1015.3 |
| 20260503210610 | 16 | 199 | 0.0 | 6.4 | 0.00 | 0.00 | 0.00 | 52 | 1015.3 |
| 20260503210509 | 16 | 197 | 0.0 | 6.4 | 0.00 | 0.00 | 0.00 | 52 | 1015.3 |
| 20260503210408 | 16 | 231 | 1.6 | 6.4 | 0.00 | 0.00 | 0.00 | 51 | 1015.3 |
| 20260503210325 | 16 | 212 | 0.0 | 6.4 | 0.00 | 0.00 | 0.00 | 51 | 1015.3 |
| 20260503210305 | 16 | 196 | 1.6 | 6.4 | 0.00 | 0.00 | 0.00 | 51 | 1015.3 |
| 20260503210205 | 16 | 195 | 0.0 | 6.4 | 0.00 | 0.00 | 0.00 | 51 | 1015.4 |
| 20260503210105 | 16 | 187 | 0.0 | 6.4 | 0.00 | 0.00 | 0.00 | 51 | 1015.3 |
| 20260503210006 | 16 | 245 | 1.6 | 6.4 | 0.00 | 0.00 | 0.00 | 51 | 1015.3 |
| 20260503205904 | 16 | 209 | 0.0 | 3.2 | 0.00 | 0.00 | 0.00 | 51 | 1015.4 |
| 20260503205824 | 16 | 175 | 0.0 | 3.2 | 0.00 | 0.00 | 0.00 | 51 | 1015.5 |
| 20260503205804 | 16 | 204 | 0.0 | 3.2 | 0.00 | 0.00 | 0.00 | 51 | 1015.5 |
| 20260503205704 | 16 | 187 | 0.0 | 3.2 | 0.00 | 0.00 | 0.00 | 52 | 1015.5 |
| 20260503205639 | 16 | 214 | 0.0 | 3.2 | 0.00 | 0.00 | 0.00 | 52 | 1015.2 |
| 20260503205623 | 16 | 199 | 0.0 | 3.2 | 0.00 | 0.00 | 0.00 | 52 | 1015.5 |
| 20260503205324 | 16 | 201 | 0.0 | 6.4 | 0.00 | 0.00 | 0.00 | 52 | 1015.4 |
| 20260503205304 | 16 | 201 | 0.0 | 6.4 | 0.00 | 0.00 | 0.00 | 52 | 1015.4 |
| 20260503205204 | 16 | 192 | 0.0 | 6.4 | 0.00 | 0.00 | 0.00 | 52 | 1015.3 |
| 20260503205103 | 16 | 198 | 0.0 | 6.4 | 0.00 | 0.00 | 0.00 | 52 | 1015.1 |
| 20260503205002 | 16 | 203 | 0.0 | 6.4 | 0.00 | 0.00 | 0.00 | 52 | 1015.3 |
| 20260503204918 | 17 | 192 | 0.0 | 3.2 | 0.00 | 0.00 | 0.00 | 52 | 1015.1 |
| 20260503204913 | 16 | 171 | 0.0 | 6.4 | 0.00 | 0.00 | 0.00 | 52 | 1015.4 |
| 20260503204859 | 16 | 169 | 0.0 | 6.4 | 0.00 | 0.00 | 0.00 | 52 | 1015.4 |
| 20260503204851 | 16 | 204 | 0.0 | 6.4 | 0.00 | 0.00 | 0.00 | 52 | 1015.3 |
| 20260503204835 | 16 | 209 | 1.6 | 6.4 | 0.00 | 0.00 | 0.00 | 52 | 1015.4 |
| 20260503204820 | 16 | 196 | 0.0 | 6.4 | 0.00 | 0.00 | 0.00 | 52 | 1015.4 |
| 20260503204543 | 17 | 186 | 0.0 | 3.2 | 0.00 | 0.00 | 0.00 | 52 | 1015.3 |
| 20260503204303 | 17 | 204 | 0.0 | 3.2 | 0.00 | 0.00 | 0.00 | 52 | 1015.1 |
| 20260503204237 | 17 | 201 | 0.0 | 3.2 | 0.00 | 0.00 | 0.00 | 52 | 1015.4 |
| 20260503204221 | 17 | 193 | 0.0 | 3.2 | 0.00 | 0.00 | 0.00 | 52 | 1015.4 |
| 20260503204206 | 17 | 189 | 0.0 | 6.4 | 0.00 | 0.00 | 0.00 | 52 | 1015.5 |
| 20260503204151 | 17 | 189 | 0.0 | 6.4 | 0.00 | 0.00 | 0.00 | 52 | 1015.4 |
| 20260503204136 | 17 | 184 | 0.0 | 6.4 | 0.00 | 0.00 | 0.00 | 52 | 1015.4 |
| 20260503203603 | 17 | 203 | 0.0 | 6.4 | 0.00 | 0.00 | 0.00 | 51 | 1015.4 |
| 20260503203503 | 17 | 207 | 1.6 | 6.4 | 0.00 | 0.00 | 0.00 | 52 | 1015.4 |
| 20260503203404 | 17 | 183 | 0.0 | 6.4 | 0.00 | 0.00 | 0.00 | 52 | 1015.4 |
| 20260503203323 | 17 | 201 | 0.0 | 6.4 | 0.00 | 0.00 | 0.00 | 51 | 1015.5 |
| 20260503203304 | 17 | 181 | 0.0 | 6.4 | 0.00 | 0.00 | 0.00 | 51 | 1015.5 |
| 20260503203203 | 17 | 188 | 0.0 | 6.4 | 0.00 | 0.00 | 0.00 | 51 | 1015.3 |
| 20260503203120 | 17 | 196 | 0.0 | 6.4 | 0.00 | 0.00 | 0.00 | 51 | 1015.4 |
| 20260503203115 | 17 | 213 | 3.2 | 6.4 | 0.00 | 0.00 | 0.00 | 51 | 1015.4 |
| 20260503203059 | 17 | 186 | 0.0 | 6.4 | 0.00 | 0.00 | 0.00 | 52 | 1015.5 |
| 20260503203042 | 17 | 208 | 0.0 | 6.4 | 0.00 | 0.00 | 0.00 | 51 | 1015.3 |
| 20260503202804 | 17 | 204 | 0.0 | 6.4 | 0.00 | 0.00 | 0.00 | 52 | 1015.4 |
| 20260503202703 | 17 | 184 | 0.0 | 4.8 | 0.00 | 0.00 | 0.00 | 52 | 1015.2 |
| 20260503202603 | 17 | 189 | 0.0 | 4.8 | 0.00 | 0.00 | 0.00 | 51 | 1015.3 |
| 20260503202504 | 17 | 194 | 0.0 | 4.8 | 0.00 | 0.00 | 0.00 | 52 | 1015.5 |
| 20260503202403 | 17 | 184 | 0.0 | 4.8 | 0.00 | 0.00 | 0.00 | 52 | 1015.2 |
| 20260503202323 | 17 | 188 | 1.6 | 4.8 | 0.00 | 0.00 | 0.00 | 52 | 1015.1 |
| 20260503202304 | 17 | 181 | 0.0 | 4.8 | 0.00 | 0.00 | 0.00 | 52 | 1015.1 |
| 20260503202203 | 17 | 202 | 0.0 | 4.8 | 0.00 | 0.00 | 0.00 | 52 | 1015.2 |
| 20260503202140 | 17 | 184 | 0.0 | 4.8 | 0.00 | 0.00 | 0.00 | 52 | 1015.4 |
| 20260503202123 | 17 | 205 | 3.2 | 4.8 | 0.00 | 0.00 | 0.00 | 52 | 1015.4 |
| 20260503201825 | 17 | 184 | 0.0 | 4.8 | 0.00 | 0.00 | 0.00 | 52 | 1015.3 |
| 20260503201805 | 17 | 176 | 0.0 | 4.8 | 0.00 | 0.00 | 0.00 | 52 | 1015.3 |
| 20260503201753 | 17 | 199 | 1.6 | 6.4 | 0.00 | 0.00 | 0.00 | 53 | 1015.3 |
| 20260503201749 | 17 | 210 | 0.0 | 4.8 | 0.00 | 0.00 | 0.00 | 53 | 1015.4 |
| 20260503201740 | 17 | 192 | 0.0 | 4.8 | 0.00 | 0.00 | 0.00 | 52 | 1015.4 |
| 20260503201724 | 17 | 226 | 1.6 | 4.8 | 0.00 | 0.00 | 0.00 | 53 | 1015.3 |
| 20260503201708 | 17 | 196 | 0.0 | 3.2 | 0.00 | 0.00 | 0.00 | 53 | 1015.4 |
| 20260503201652 | 17 | 199 | 0.0 | 6.4 | 0.00 | 0.00 | 0.00 | 52 | 1015.3 |
| 20260503201638 | 17 | 191 | 0.0 | 6.4 | 0.00 | 0.00 | 0.00 | 52 | 1015.2 |
| 20260503201629 | 17 | 200 | 0.0 | 6.4 | 0.00 | 0.00 | 0.00 | 52 | 1015.2 |
| 20260503201611 | 17 | 186 | 0.0 | 6.4 | 0.00 | 0.00 | 0.00 | 52 | 1015.3 |
| 20260503201335 | 17 | 196 | 1.6 | 6.4 | 0.00 | 0.00 | 0.00 | 52 | 1015.2 |
| 20260503201318 | 17 | 175 | 0.0 | 6.4 | 0.00 | 0.00 | 0.00 | 53 | 1015.3 |
| 20260503201052 | 17 | 191 | 0.0 | 6.4 | 0.00 | 0.00 | 0.00 | 53 | 1015.3 |
| 20260503200811 | 17 | 191 | 0.0 | 6.4 | 0.00 | 0.00 | 0.00 | 53 | 1015.3 |
| 20260503200755 | 17 | 195 | 0.0 | 6.4 | 0.00 | 0.00 | 0.00 | 53 | 1015.4 |
| 20260503200740 | 17 | 225 | 0.0 | 4.8 | 0.00 | 0.00 | 0.00 | 53 | 1015.3 |
| 20260503200203 | 17 | 189 | 0.0 | 4.8 | 0.00 | 0.00 | 0.00 | 53 | 1015.4 |
| 20260503200104 | 17 | 198 | 0.0 | 4.8 | 0.00 | 0.00 | 0.00 | 53 | 1015.1 |
| 20260503195959 | 17 | 188 | 0.0 | 4.8 | 0.00 | 0.00 | 0.00 | 53 | 1015.3 |
| 20260503195900 | 17 | 211 | 3.2 | 4.8 | 0.00 | 0.00 | 0.00 | 53 | 1015.2 |
| 20260503195819 | 17 | 183 | 0.0 | 4.8 | 0.00 | 0.00 | 0.00 | 53 | 1015.2 |
| 20260503195759 | 17 | 198 | 0.0 | 4.8 | 0.00 | 0.00 | 0.00 | 53 | 1015.2 |
| 20260503195700 | 17 | 199 | 0.0 | 4.8 | 0.00 | 0.00 | 0.00 | 53 | 1015.2 |
| 20260503195558 | 17 | 182 | 0.0 | 4.8 | 0.00 | 0.00 | 0.00 | 53 | 1015.2 |
| 20260503195539 | 17 | 193 | 0.0 | 4.8 | 0.00 | 0.00 | 0.00 | 52 | 1015.1 |
| 20260503195531 | 17 | 195 | 0.0 | 4.8 | 0.00 | 0.00 | 0.00 | 53 | 1015.2 |
| 20260503195516 | 17 | 196 | 0.0 | 4.8 | 0.00 | 0.00 | 0.00 | 53 | 1015.4 |
| 20260503195502 | 17 | 222 | 1.6 | 4.8 | 0.00 | 0.00 | 0.00 | 53 | 1015.3 |
| 20260503195454 | 17 | 230 | 1.6 | 4.8 | 0.00 | 0.00 | 0.00 | 53 | 1015.3 |
| 20260503195435 | 17 | 195 | 0.0 | 4.8 | 0.00 | 0.00 | 0.00 | 53 | 1015.0 |
| 20260503195419 | 17 | 213 | 0.0 | 1.6 | 0.00 | 0.00 | 0.00 | 53 | 1015.2 |
| 20260503195403 | 18 | 200 | 1.6 | 1.6 | 0.00 | 0.00 | 0.00 | 52 | 1015.1 |
| 20260503195348 | 18 | 194 | 0.0 | 3.2 | 0.00 | 0.00 | 0.00 | 52 | 1015.3 |
| 20260503195334 | 18 | 182 | 0.0 | 3.2 | 0.00 | 0.00 | 0.00 | 52 | 1015.3 |
| 20260503195105 | 18 | 217 | 0.0 | 4.8 | 0.00 | 0.00 | 0.00 | 52 | 1015.0 |
| 20260503195049 | 18 | 192 | 0.0 | 4.8 | 0.00 | 0.00 | 0.00 | 52 | 1015.2 |
| 20260503194814 | 18 | 196 | 0.0 | 4.8 | 0.00 | 0.00 | 0.00 | 52 | 1015.2 |
| 20260503194759 | 18 | 205 | 0.0 | 4.8 | 0.00 | 0.00 | 0.00 | 52 | 1015.3 |
| 20260503194530 | 18 | 187 | 0.0 | 4.8 | 0.00 | 0.00 | 0.00 | 52 | 1015.5 |
| 20260503194036 | 17 | 205 | 0.0 | 4.8 | 0.00 | 0.00 | 0.00 | 52 | 1015.0 |
| 20260503193757 | 17 | 191 | 0.0 | 4.8 | 0.00 | 0.00 | 0.00 | 53 | 1015.1 |
| 20260503193652 | 18 | 190 | 0.0 | 4.8 | 0.00 | 0.00 | 0.00 | 53 | 1015.1 |
| 20260503193551 | 18 | 188 | 0.0 | 4.8 | 0.00 | 0.00 | 0.00 | 53 | 1015.2 |
| 20260503193451 | 18 | 188 | 0.0 | 4.8 | 0.00 | 0.00 | 0.00 | 53 | 1015.1 |
| 20260503193349 | 18 | 199 | 0.0 | 4.8 | 0.00 | 0.00 | 0.00 | 53 | 1015.2 |
| 20260503193307 | 18 | 194 | 0.0 | 4.8 | 0.00 | 0.00 | 0.00 | 53 | 1015.4 |
| 20260503193247 | 18 | 194 | 0.0 | 4.8 | 0.00 | 0.00 | 0.00 | 53 | 1015.4 |
| 20260503193145 | 18 | 186 | 0.0 | 4.8 | 0.00 | 0.00 | 0.00 | 53 | 1015.0 |
| 20260503193045 | 18 | 206 | 0.0 | 4.8 | 0.00 | 0.00 | 0.00 | 53 | 1015.1 |
| 20260503192945 | 17 | 196 | 0.0 | 4.8 | 0.00 | 0.00 | 0.00 | 53 | 1015.0 |
| 20260503192843 | 17 | 195 | 0.0 | 4.8 | 0.00 | 0.00 | 0.00 | 53 | 1015.2 |
| 20260503192800 | 17 | 204 | 0.0 | 4.8 | 0.00 | 0.00 | 0.00 | 53 | 1015.0 |
| 20260503192740 | 17 | 200 | 0.0 | 4.8 | 0.00 | 0.00 | 0.00 | 53 | 1015.0 |
| 20260503192640 | 17 | 188 | 0.0 | 4.8 | 0.00 | 0.00 | 0.00 | 53 | 1015.0 |
| 20260503192540 | 17 | 192 | 0.0 | 4.8 | 0.00 | 0.00 | 0.00 | 53 | 1015.3 |
| 20260503192441 | 17 | 194 | 0.0 | 4.8 | 0.00 | 0.00 | 0.00 | 53 | 1015.2 |
| 20260503192328 | 17 | 237 | 1.6 | 4.8 | 0.00 | 0.00 | 0.00 | 53 | 1015.2 |
| 20260503192300 | 17 | 191 | 0.0 | 1.6 | 0.00 | 0.00 | 0.00 | 54 | 1015.2 |
| 20260503192228 | 17 | 192 | 0.0 | 1.6 | 0.00 | 0.00 | 0.00 | 53 | 1015.1 |
| 20260503192129 | 17 | 223 | 0.0 | 1.6 | 0.00 | 0.00 | 0.00 | 53 | 1015.1 |
| 20260503192027 | 17 | 189 | 0.0 | 1.6 | 0.00 | 0.00 | 0.00 | 54 | 1015.0 |
| 20260503191928 | 17 | 192 | 0.0 | 1.6 | 0.00 | 0.00 | 0.00 | 53 | 1015.1 |
| 20260503191823 | 17 | 196 | 0.0 | 1.6 | 0.00 | 0.00 | 0.00 | 53 | 1015.2 |
| 20260503191755 | 17 | 202 | 0.0 | 1.6 | 0.00 | 0.00 | 0.00 | 53 | 1015.2 |
| 20260503191723 | 17 | 199 | 0.0 | 1.6 | 0.00 | 0.00 | 0.00 | 53 | 1015.1 |
| 20260503191700 | 17 | 194 | 0.0 | 0.0 | 0.00 | 0.00 | 0.00 | 53 | 1014.9 |
| 20260503191645 | 17 | 198 | 0.0 | 0.0 | 0.00 | 0.00 | 0.00 | 53 | 1015.1 |
| 20260503191325 | 17 | 196 | 0.0 | 0.0 | 0.00 | 0.00 | 0.00 | 53 | 1015.2 |
| 20260503191253 | 17 | 189 | 0.0 | 0.0 | 0.00 | 0.00 | 0.00 | 53 | 1015.2 |
| 20260503191221 | 17 | 185 | 0.0 | 0.0 | 0.00 | 0.00 | 0.00 | 53 | 1015.3 |
| 20260503191121 | 17 | 192 | 0.0 | 0.0 | 0.00 | 0.00 | 0.00 | 53 | 1015.1 |
| 20260503191054 | 17 | 187 | 0.0 | 0.0 | 0.00 | 0.00 | 0.00 | 53 | 1015.3 |
| 20260503191037 | 17 | 192 | 0.0 | 1.6 | 0.00 | 0.00 | 0.00 | 53 | 1015.1 |
| 20260503190749 | 17 | 194 | 0.0 | 1.6 | 0.00 | 0.00 | 0.00 | 53 | 1015.1 |
| 20260503190716 | 17 | 194 | 0.0 | 1.6 | 0.00 | 0.00 | 0.00 | 53 | 1015.1 |
| 20260503190617 | 17 | 194 | 0.0 | 1.6 | 0.00 | 0.00 | 0.00 | 53 | 1015.1 |
| 20260503190516 | 18 | 194 | 0.0 | 1.6 | 0.00 | 0.00 | 0.00 | 53 | 1015.1 |
| 20260503190417 | 18 | 194 | 0.0 | 1.6 | 0.00 | 0.00 | 0.00 | 53 | 1015.0 |
| 20260503190316 | 18 | 194 | 0.0 | 1.6 | 0.00 | 0.00 | 0.00 | 53 | 1015.0 |
| 20260503190249 | 18 | 192 | 0.0 | 1.6 | 0.00 | 0.00 | 0.00 | 53 | 1015.0 |
| 20260503190215 | 18 | 196 | 0.0 | 1.6 | 0.00 | 0.00 | 0.00 | 53 | 1015.2 |
| 20260503190116 | 18 | 195 | 0.0 | 1.6 | 0.00 | 0.00 | 0.00 | 52 | 1015.1 |
| 20260503190052 | 18 | 196 | 0.0 | 1.6 | 0.00 | 0.00 | 0.00 | 52 | 1014.9 |
| 20260503190036 | 18 | 191 | 0.0 | 0.0 | 0.00 | 0.00 | 0.00 | 52 | 1015.2 |
| 20260503185745 | 18 | 191 | 0.0 | 0.0 | 0.00 | 0.00 | 0.00 | 52 | 1015.1 |
| 20260503185711 | 18 | 190 | 0.0 | 0.0 | 0.00 | 0.00 | 0.00 | 52 | 1015.0 |
| 20260503185611 | 18 | 191 | 0.0 | 0.0 | 0.00 | 0.00 | 0.00 | 52 | 1015.2 |
| 20260503185511 | 18 | 191 | 0.0 | 0.0 | 0.00 | 0.00 | 0.00 | 52 | 1015.0 |
| 20260503185410 | 18 | 191 | 0.0 | 0.0 | 0.00 | 0.00 | 0.00 | 52 | 1014.9 |
| 20260503185313 | 18 | 192 | 0.0 | 0.0 | 0.00 | 0.00 | 0.00 | 51 | 1015.2 |
| 20260503185236 | 18 | 192 | 0.0 | 0.0 | 0.00 | 0.00 | 0.00 | 51 | 1015.2 |
| 20260503185211 | 18 | 192 | 0.0 | 0.0 | 0.00 | 0.00 | 0.00 | 51 | 1015.0 |
| 20260503185111 | 18 | 195 | 0.0 | 0.0 | 0.00 | 0.00 | 0.00 | 51 | 1015.0 |
| 20260503185008 | 18 | 167 | 0.0 | 0.0 | 0.00 | 0.00 | 0.00 | 51 | 1015.1 |
| 20260503184940 | 19 | 188 | 0.0 | 0.0 | 0.00 | 0.00 | 0.00 | 49 | 1014.8 |
| 20260503184933 | 18 | 196 | 0.0 | 1.6 | 0.00 | 0.00 | 0.00 | 51 | 1015.0 |
| 20260503184902 | 18 | 196 | 0.0 | 1.6 | 0.00 | 0.00 | 0.00 | 51 | 1015.0 |
| 20260503184854 | 18 | 223 | 0.0 | 1.6 | 0.00 | 0.00 | 0.00 | 50 | 1015.1 |
| 20260503184836 | 18 | 194 | 0.0 | 1.6 | 0.00 | 0.00 | 0.00 | 50 | 1015.0 |
| 20260503184820 | 18 | 190 | 0.0 | 1.6 | 0.00 | 0.00 | 0.00 | 51 | 1015.1 |
| 20260503184804 | 18 | 191 | 0.0 | 1.6 | 0.00 | 0.00 | 0.00 | 50 | 1015.1 |
| 20260503184531 | 19 | 190 | 0.0 | 1.6 | 0.00 | 0.00 | 0.00 | 50 | 1015.0 |
| 20260503184300 | 19 | 190 | 0.0 | 1.6 | 0.00 | 0.00 | 0.00 | 50 | 1014.9 |
| 20260503184243 | 19 | 194 | 0.0 | 3.2 | 0.00 | 0.00 | 0.00 | 49 | 1014.9 |
| 20260503184007 | 19 | 190 | 0.0 | 3.2 | 0.00 | 0.00 | 0.00 | 49 | 1014.9 |
| 20260503183954 | 19 | 193 | 0.0 | 3.2 | 0.00 | 0.00 | 0.00 | 49 | 1014.9 |
| 20260503183724 | 19 | 190 | 0.0 | 3.2 | 0.00 | 0.00 | 0.00 | 49 | 1015.0 |
| 20260503183707 | 19 | 192 | 0.0 | 3.2 | 0.00 | 0.00 | 0.00 | 49 | 1015.0 |
| 20260503183651 | 19 | 191 | 0.0 | 3.2 | 0.00 | 0.00 | 0.00 | 49 | 1014.9 |
| 20260503183635 | 19 | 186 | 0.0 | 3.2 | 0.00 | 0.00 | 0.00 | 49 | 1014.6 |
| 20260503183621 | 19 | 186 | 0.0 | 3.2 | 0.00 | 0.00 | 0.00 | 49 | 1014.9 |
| 20260503183612 | 19 | 188 | 0.0 | 3.2 | 0.00 | 0.00 | 0.00 | 49 | 1014.9 |
| 20260503183554 | 19 | 203 | 0.0 | 1.6 | 0.00 | 0.00 | 0.00 | 49 | 1015.0 |
| 20260503183537 | 19 | 191 | 0.0 | 1.6 | 0.00 | 0.00 | 0.00 | 49 | 1015.0 |
| 20260503183522 | 19 | 192 | 0.0 | 1.6 | 0.00 | 0.00 | 0.00 | 49 | 1015.0 |
| 20260503183507 | 19 | 178 | 0.0 | 1.6 | 0.00 | 0.00 | 0.00 | 49 | 1014.8 |
| 20260503183454 | 19 | 199 | 0.0 | 1.6 | 0.00 | 0.00 | 0.00 | 49 | 1014.8 |
| 20260503183227 | 19 | 196 | 0.0 | 0.0 | 0.00 | 0.00 | 0.00 | 49 | 1014.8 |
| 20260503182951 | 19 | 191 | 0.0 | 0.0 | 0.00 | 0.00 | 0.00 | 49 | 1015.0 |
| 20260503181936 | 20 | 192 | 0.0 | 0.0 | 0.00 | 0.00 | 0.00 | 48 | 1014.8 |
| 20260503181835 | 20 | 190 | 0.0 | 0.0 | 0.00 | 0.00 | 0.00 | 48 | 1015.0 |
| 20260503181720 | 20 | 190 | 0.0 | 0.0 | 0.00 | 0.00 | 0.00 | 48 | 1014.8 |
| 20260503181635 | 20 | 188 | 0.0 | 0.0 | 0.00 | 0.00 | 0.00 | 48 | 1015.0 |
| 20260503181604 | 20 | 191 | 0.0 | 0.0 | 0.00 | 0.00 | 0.00 | 48 | 1014.8 |
| 20260503181556 | 20 | 190 | 0.0 | 0.0 | 0.00 | 0.00 | 0.00 | 48 | 1014.8 |
| 20260503181540 | 20 | 201 | 0.0 | 0.0 | 0.00 | 0.00 | 0.00 | 48 | 1014.9 |
| 20260503181524 | 20 | 187 | 0.0 | 0.0 | 0.00 | 0.00 | 0.00 | 48 | 1014.7 |
| 20260503181510 | 20 | 191 | 0.0 | 0.0 | 0.00 | 0.00 | 0.00 | 48 | 1014.8 |
| 20260503181243 | 20 | 194 | 0.0 | 0.0 | 0.00 | 0.00 | 0.00 | 48 | 1014.6 |
| 20260503181224 | 20 | 195 | 0.0 | 0.0 | 0.00 | 0.00 | 0.00 | 48 | 1014.7 |
| 20260503180950 | 20 | 188 | 0.0 | 0.0 | 0.00 | 0.00 | 0.00 | 48 | 1014.7 |
| 20260503180924 | 20 | 194 | 0.0 | 0.0 | 0.00 | 0.00 | 0.00 | 48 | 1014.6 |
| 20260503180914 | 20 | 194 | 0.0 | 0.0 | 0.00 | 0.00 | 0.00 | 47 | 1014.8 |
| 20260503180639 | 20 | 194 | 0.0 | 0.0 | 0.00 | 0.00 | 0.00 | 47 | 1014.8 |
| 20260503180623 | 20 | 193 | 0.0 | 0.0 | 0.00 | 0.00 | 0.00 | 47 | 1014.2 |
| 20260503180351 | 20 | 190 | 0.0 | 0.0 | 0.00 | 0.00 | 0.00 | 47 | 1014.9 |
| 20260503180339 | 20 | 190 | 0.0 | 0.0 | 0.00 | 0.00 | 0.00 | 47 | 1014.7 |
| 20260503180320 | 20 | 190 | 0.0 | 0.0 | 0.00 | 0.00 | 0.00 | 47 | 1014.6 |
| 20260503180305 | 20 | 190 | 0.0 | 0.0 | 0.00 | 0.00 | 0.00 | 47 | 1014.8 |
| 20260503180016 | 20 | 189 | 0.0 | 0.0 | 0.00 | 0.00 | 0.00 | 47 | 1014.6 |
| 20260503175747 | 20 | 190 | 0.0 | 0.0 | 0.00 | 0.00 | 0.00 | 47 | 1014.6 |
| 20260503175730 | 20 | 189 | 0.0 | 0.0 | 0.00 | 0.00 | 0.00 | 47 | 1014.8 |
| 20260503175714 | 20 | 189 | 0.0 | 0.0 | 0.00 | 0.00 | 0.00 | 47 | 1014.7 |
| 20260503175448 | 20 | 190 | 0.0 | 0.0 | 0.00 | 0.00 | 0.00 | 46 | 1014.7 |
| 20260503174944 | 21 | 187 | 0.0 | 3.2 | 0.00 | 0.00 | 0.00 | 46 | 1014.6 |
| 20260503174927 | 21 | 187 | 0.0 | 3.2 | 0.00 | 0.00 | 0.00 | 46 | 1014.7 |
| 20260503174657 | 21 | 187 | 0.0 | 3.2 | 0.00 | 0.00 | 0.00 | 46 | 1014.5 |
| 20260503174557 | 21 | 188 | 0.0 | 3.2 | 0.00 | 0.00 | 0.00 | 46 | 1014.7 |
| 20260503174452 | 21 | 194 | 0.0 | 3.2 | 0.00 | 0.00 | 0.00 | 46 | 1014.5 |
| 20260503174348 | 21 | 194 | 0.0 | 3.2 | 0.00 | 0.00 | 0.00 | 46 | 1014.7 |
| 20260503174247 | 21 | 203 | 0.0 | 3.2 | 0.00 | 0.00 | 0.00 | 45 | 1014.6 |
| 20260503174145 | 21 | 190 | 0.0 | 3.2 | 0.00 | 0.00 | 0.00 | 46 | 1014.5 |
| 20260503174045 | 21 | 189 | 0.0 | 3.2 | 0.00 | 0.00 | 0.00 | 45 | 1014.7 |
| 20260503174006 | 21 | 186 | 0.0 | 1.6 | 0.00 | 0.00 | 0.00 | 46 | 1014.3 |
| 20260503173950 | 21 | 205 | 0.0 | 3.2 | 0.00 | 0.00 | 0.00 | 45 | 1014.7 |
| 20260503173934 | 21 | 191 | 0.0 | 3.2 | 0.00 | 0.00 | 0.00 | 45 | 1014.3 |
| 20260503173919 | 21 | 193 | 0.0 | 3.2 | 0.00 | 0.00 | 0.00 | 45 | 1014.3 |
| 20260503173652 | 21 | 194 | 0.0 | 3.2 | 0.00 | 0.00 | 0.00 | 46 | 1014.3 |
| 20260503173421 | 21 | 192 | 0.0 | 3.2 | 0.00 | 0.00 | 0.00 | 45 | 1014.7 |
| 20260503173412 | 21 | 194 | 0.0 | 3.2 | 0.00 | 0.00 | 0.00 | 46 | 1014.6 |
| 20260503173355 | 21 | 195 | 0.0 | 3.2 | 0.00 | 0.00 | 0.00 | 45 | 1014.7 |
| 20260503173115 | 21 | 188 | 0.0 | 3.2 | 0.00 | 0.00 | 0.00 | 45 | 1014.5 |
| 20260503173018 | 21 | 192 | 0.0 | 3.2 | 0.00 | 0.00 | 0.00 | 45 | 1014.7 |
| 20260503172904 | 21 | 184 | 0.0 | 3.2 | 0.00 | 0.00 | 0.00 | 45 | 1014.6 |
| 20260503172806 | 21 | 185 | 0.0 | 3.2 | 0.00 | 0.00 | 0.00 | 45 | 1014.5 |
| 20260503172703 | 21 | 175 | 0.0 | 3.2 | 0.00 | 0.00 | 0.00 | 45 | 1014.5 |
| 20260503172636 | 21 | 182 | 0.0 | 3.2 | 0.00 | 0.00 | 0.00 | 45 | 1014.5 |
| 20260503172603 | 21 | 241 | 0.0 | 1.6 | 0.00 | 0.00 | 0.00 | 45 | 1014.6 |
| 20260503172524 | 22 | 187 | 0.0 | 11.3 | 0.00 | 0.00 | 0.00 | 44 | 1014.5 |
| 20260503172514 | 21 | 190 | 0.0 | 1.6 | 0.00 | 0.00 | 0.00 | 45 | 1014.6 |
| 20260503172445 | 22 | 190 | 0.0 | 0.0 | 0.00 | 0.00 | 0.00 | 45 | 1014.7 |
| 20260503172429 | 22 | 184 | 0.0 | 0.0 | 0.00 | 0.00 | 0.00 | 46 | 1014.5 |
| 20260503172417 | 22 | 184 | 0.0 | 0.0 | 0.00 | 0.00 | 0.00 | 46 | 1014.3 |
| 20260503172145 | 22 | 194 | 0.0 | 0.0 | 0.00 | 0.00 | 0.00 | 45 | 1014.6 |
| 20260503172129 | 22 | 186 | 0.0 | 0.0 | 0.00 | 0.00 | 0.00 | 45 | 1014.5 |
| 20260503171852 | 22 | 193 | 0.0 | 1.6 | 0.00 | 0.00 | 0.00 | 45 | 1014.5 |
| 20260503171840 | 22 | 185 | 0.0 | 1.6 | 0.00 | 0.00 | 0.00 | 44 | 1014.5 |
| 20260503171830 | 22 | 185 | 0.0 | 1.6 | 0.00 | 0.00 | 0.00 | 45 | 1014.6 |
| 20260503171814 | 22 | 185 | 0.0 | 1.6 | 0.00 | 0.00 | 0.00 | 44 | 1014.6 |
| 20260503171758 | 22 | 192 | 0.0 | 1.6 | 0.00 | 0.00 | 0.00 | 45 | 1014.6 |
| 20260503171743 | 22 | 186 | 0.0 | 1.6 | 0.00 | 0.00 | 0.00 | 45 | 1014.6 |
| 20260503171511 | 22 | 186 | 0.0 | 1.6 | 0.00 | 0.00 | 0.00 | 45 | 1014.3 |
| 20260503171459 | 22 | 183 | 0.0 | 1.6 | 0.00 | 0.00 | 0.00 | 44 | 1014.6 |
| 20260503171220 | 22 | 184 | 0.0 | 11.3 | 0.00 | 0.00 | 0.00 | 44 | 1014.6 |
| 20260503170941 | 22 | 187 | 0.0 | 11.3 | 0.00 | 0.00 | 0.00 | 44 | 1014.5 |
| 20260503170443 | 22 | 187 | 0.0 | 11.3 | 0.00 | 0.00 | 0.00 | 43 | 1014.7 |
| 20260503170427 | 22 | 194 | 0.0 | 11.3 | 0.00 | 0.00 | 0.00 | 43 | 1014.7 |
| 20260503170143 | 22 | 200 | 0.0 | 11.3 | 0.00 | 0.00 | 0.00 | 42 | 1014.7 |
| 20260503170125 | 22 | 209 | 6.4 | 11.3 | 0.00 | 0.00 | 0.00 | 42 | 1014.6 |
| 20260503160214 | 23 | 195 | 1.6 | 17.7 | 0.00 | 0.00 | 0.00 | 41 | 1014.3 |
| 20260503160114 | 23 | 218 | 12.9 | 17.7 | 0.00 | 0.00 | 0.00 | 41 | 1014.6 |
| 20260503150450 | 24 | 121 | 0.0 | 12.9 | 0.00 | 0.00 | 0.00 | 41 | 1015.0 |
| 20260503150350 | 24 | 201 | 1.6 | 12.9 | 0.00 | 0.00 | 0.00 | 41 | 1014.9 |
| 20260503150251 | 24 | 187 | 0.0 | 12.9 | 0.00 | 0.00 | 0.00 | 41 | 1015.1 |
| 20260503150210 | 24 | 207 | 6.4 | 12.9 | 0.00 | 0.00 | 0.00 | 41 | 1014.9 |
| 20260503150150 | 24 | 212 | 1.6 | 12.9 | 0.00 | 0.00 | 0.00 | 41 | 1014.9 |
| 20260503130828 | 23 | 215 | 4.8 | 30.6 | 0.00 | 0.00 | 0.00 | 40 | 1016.2 |
| 20260503130726 | 23 | 206 | 8.0 | 30.6 | 0.00 | 0.00 | 0.00 | 40 | 1016.3 |
| 20260503130707 | 23 | 261 | 14.5 | 30.6 | 0.00 | 0.00 | 0.00 | 40 | 1016.3 |
| 20260503130658 | 23 | 219 | 19.3 | 30.6 | 0.00 | 0.00 | 0.00 | 40 | 1016.3 |
| 20260503130641 | 23 | 183 | 14.5 | 30.6 | 0.00 | 0.00 | 0.00 | 40 | 1016.3 |
| 20260503130625 | 23 | 213 | 14.5 | 30.6 | 0.00 | 0.00 | 0.00 | 40 | 1016.2 |
| 20260503130349 | 24 | 151 | 0.0 | 30.6 | 0.00 | 0.00 | 0.00 | 40 | 1016.1 |
| 20260503130336 | 24 | 170 | 1.6 | 30.6 | 0.00 | 0.00 | 0.00 | 40 | 1016.1 |
| 20260503130325 | 24 | 216 | 4.8 | 30.6 | 0.00 | 0.00 | 0.00 | 39 | 1016.4 |
| 20260503130309 | 24 | 187 | 8.0 | 11.3 | 0.00 | 0.00 | 0.00 | 40 | 1016.3 |
| 20260503110814 | 23 | 216 | 3.2 | 22.5 | 0.00 | 0.00 | 0.00 | 43 | 1017.2 |
| 20260503110505 | 23 | 207 | 8.0 | 22.5 | 0.00 | 0.00 | 0.00 | 42 | 1017.1 |
| 20260503110405 | 23 | 200 | 0.0 | 22.5 | 0.00 | 0.00 | 0.00 | 42 | 1017.4 |
| 20260503110305 | 23 | 265 | 11.3 | 22.5 | 0.00 | 0.00 | 0.00 | 41 | 1017.5 |
| 20260503110250 | 23 | 251 | 3.2 | 24.1 | 0.00 | 0.00 | 0.00 | 42 | 1017.4 |
| 20260503110241 | 23 | 245 | 4.8 | 22.5 | 0.00 | 0.00 | 0.00 | 42 | 1017.1 |
| 20260503110217 | 23 | 243 | 6.4 | 22.5 | 0.00 | 0.00 | 0.00 | 42 | 1017.3 |
| 20260503110200 | 23 | 239 | 4.8 | 22.5 | 0.00 | 0.00 | 0.00 | 42 | 1017.4 |
| 20260503110144 | 23 | 309 | 4.8 | 12.9 | 0.00 | 0.00 | 0.00 | 43 | 1017.5 |
| 20260503110128 | 23 | 201 | 1.6 | 12.9 | 0.00 | 0.00 | 0.00 | 43 | 1017.3 |
| 20260503110112 | 23 | 190 | 0.0 | 12.9 | 0.00 | 0.00 | 0.00 | 44 | 1017.5 |
| 20260503100248 | 24 | 234 | 8.0 | 17.7 | 0.00 | 0.00 | 0.00 | 42 | 1018.1 |
| 20260503100146 | 24 | 216 | 0.0 | 17.7 | 0.00 | 0.00 | 0.00 | 42 | 1018.2 |
| 20260503100122 | 23 | 190 | 0.0 | 17.7 | 0.00 | 0.00 | 0.00 | 42 | 1017.9 |
| 20260503100106 | 23 | 182 | 0.0 | 17.7 | 0.00 | 0.00 | 0.00 | 43 | 1018.3 |
| 20260503090310 | 21 | 202 | 1.6 | 20.9 | 0.00 | 0.00 | 0.00 | 47 | 1018.7 |
| 20260503081425 | 21 | 232 | 1.6 | 22.5 | 0.00 | 0.00 | 0.00 | 48 | 1018.8 |
| 20260503081409 | 21 | 238 | 6.4 | 22.5 | 0.00 | 0.00 | 0.00 | 47 | 1018.7 |
| 20260503081145 | 20 | 254 | 1.6 | 22.5 | 0.00 | 0.00 | 0.00 | 48 | 1018.5 |
| 20260503081129 | 20 | 236 | 6.4 | 22.5 | 0.00 | 0.00 | 0.00 | 48 | 1018.5 |
| 20260503081113 | 20 | 233 | 11.3 | 20.9 | 0.00 | 0.00 | 0.00 | 47 | 1018.5 |
| 20260503080846 | 21 | 229 | 6.4 | 20.9 | 0.00 | 0.00 | 0.00 | 47 | 1018.9 |
| 20260503080829 | 22 | 215 | 8.0 | 20.9 | 0.00 | 0.00 | 0.00 | 46 | 1018.8 |
| 20260503080509 | 22 | 198 | 0.0 | 14.5 | 0.00 | 0.00 | 0.00 | 46 | 1018.5 |
| 20260503080409 | 22 | 155 | 0.0 | 14.5 | 0.00 | 0.00 | 0.00 | 47 | 1018.8 |
| 20260503080330 | 22 | 194 | 0.0 | 14.5 | 0.00 | 0.00 | 0.00 | 46 | 1018.5 |
| 20260503080310 | 22 | 208 | 6.4 | 14.5 | 0.00 | 0.00 | 0.00 | 46 | 1018.5 |
| 20260503080209 | 22 | 164 | 3.2 | 14.5 | 0.00 | 0.00 | 0.00 | 46 | 1018.5 |
| 20260503080109 | 22 | 210 | 3.2 | 14.5 | 0.00 | 0.00 | 0.00 | 45 | 1018.5 |
| 20260503072508 | 20 | 199 | 4.8 | 27.4 | 0.00 | 0.00 | 0.00 | 49 | 1018.7 |
| 20260503072410 | 20 | 266 | 9.7 | 27.4 | 0.00 | 0.00 | 0.00 | 48 | 1018.5 |
| 20260503072355 | 19 | 170 | 0.0 | 27.4 | 0.00 | 0.00 | 0.00 | 48 | 1018.5 |
| 20260503072345 | 19 | 247 | 6.4 | 27.4 | 0.00 | 0.00 | 0.00 | 48 | 1018.5 |
| 20260503072329 | 19 | 222 | 6.4 | 27.4 | 0.00 | 0.00 | 0.00 | 49 | 1019.0 |
| 20260503072008 | 19 | 230 | 1.6 | 16.1 | 0.00 | 0.00 | 0.00 | 48 | 1018.7 |
| 20260503071908 | 19 | 216 | 4.8 | 27.4 | 0.00 | 0.00 | 0.00 | 50 | 1018.5 |
| 20260503071828 | 19 | 223 | 6.4 | 27.4 | 0.00 | 0.00 | 0.00 | 50 | 1018.8 |
| 20260503071808 | 19 | 209 | 6.4 | 27.4 | 0.00 | 0.00 | 0.00 | 49 | 1018.8 |
| 20260503071708 | 20 | 174 | 1.6 | 27.4 | 0.00 | 0.00 | 0.00 | 50 | 1018.4 |
| 20260503071609 | 20 | 187 | 0.0 | 27.4 | 0.00 | 0.00 | 0.00 | 49 | 1018.5 |
| 20260503071510 | 19 | 214 | 1.6 | 27.4 | 0.00 | 0.00 | 0.00 | 49 | 1018.7 |
| 20260503071408 | 19 | 195 | 0.0 | 27.4 | 0.00 | 0.00 | 0.00 | 50 | 1018.4 |
| 20260503071328 | 19 | 199 | 3.2 | 27.4 | 0.00 | 0.00 | 0.00 | 50 | 1018.8 |
| 20260503071308 | 19 | 231 | 11.3 | 27.4 | 0.00 | 0.00 | 0.00 | 49 | 1018.8 |
| 20260503071209 | 20 | 216 | 6.4 | 27.4 | 0.00 | 0.00 | 0.00 | 49 | 1018.3 |
| 20260503071109 | 20 | 207 | 9.7 | 27.4 | 0.00 | 0.00 | 0.00 | 49 | 1018.5 |
| 20260503071007 | 20 | 230 | 11.3 | 27.4 | 0.00 | 0.00 | 0.00 | 48 | 1018.5 |
| 20260503070945 | 18 | 204 | 4.8 | 17.7 | 0.00 | 0.00 | 0.00 | 51 | 1018.8 |
| 20260503070937 | 20 | 204 | 1.6 | 17.7 | 0.00 | 0.00 | 0.00 | 49 | 1018.7 |
| 20260503070922 | 20 | 191 | 0.0 | 17.7 | 0.00 | 0.00 | 0.00 | 49 | 1018.5 |
| 20260503070914 | 20 | 287 | 1.6 | 17.7 | 0.00 | 0.00 | 0.00 | 50 | 1018.5 |
| 20260503070859 | 20 | 203 | 0.0 | 17.7 | 0.00 | 0.00 | 0.00 | 50 | 1018.5 |
| 20260503070843 | 19 | 204 | 3.2 | 17.7 | 0.00 | 0.00 | 0.00 | 50 | 1018.5 |
| 20260503070827 | 19 | 198 | 3.2 | 17.7 | 0.00 | 0.00 | 0.00 | 50 | 1018.4 |
| 20260503070811 | 19 | 182 | 0.0 | 17.7 | 0.00 | 0.00 | 0.00 | 51 | 1018.4 |
| 20260503070541 | 18 | 230 | 3.2 | 17.7 | 0.00 | 0.00 | 0.00 | 51 | 1018.8 |
| 20260503070524 | 18 | 232 | 1.6 | 17.7 | 0.00 | 0.00 | 0.00 | 52 | 1018.4 |
| 20260503070507 | 18 | 191 | 0.0 | 17.7 | 0.00 | 0.00 | 0.00 | 53 | 1018.7 |
| 20260503070452 | 18 | 215 | 3.2 | 14.5 | 0.00 | 0.00 | 0.00 | 52 | 1018.4 |
| 20260503070216 | 18 | 177 | 0.0 | 14.5 | 0.00 | 0.00 | 0.00 | 54 | 1018.4 |
| 20260503060328 | 18 | 233 | 4.8 | 9.7 | 0.00 | 0.00 | 0.00 | 53 | 1018.3 |
| 20260503060308 | 17 | 205 | 3.2 | 9.7 | 0.00 | 0.00 | 0.00 | 53 | 1018.3 |
| 20260503060207 | 17 | 211 | 0.0 | 9.7 | 0.00 | 0.00 | 0.00 | 54 | 1018.4 |
| 20260503060107 | 18 | 223 | 3.2 | 9.7 | 0.00 | 0.00 | 0.00 | 53 | 1018.8 |
| 20260503055002 | 17 | 206 | 1.6 | 6.4 | 0.00 | 0.00 | 0.00 | 54 | 1018.5 |
| 20260503054902 | 17 | 228 | 1.6 | 6.4 | 0.00 | 0.00 | 0.00 | 55 | 1018.4 |
| 20260503054822 | 17 | 188 | 0.0 | 6.4 | 0.00 | 0.00 | 0.00 | 55 | 1018.2 |
| 20260503054803 | 18 | 183 | 0.0 | 6.4 | 0.00 | 0.00 | 0.00 | 55 | 1018.2 |
| 20260503054703 | 18 | 173 | 0.0 | 4.8 | 0.00 | 0.00 | 0.00 | 53 | 1018.5 |
| 20260503054604 | 18 | 224 | 4.8 | 4.8 | 0.00 | 0.00 | 0.00 | 54 | 1018.5 |
| 20260503054548 | 18 | 192 | 0.0 | 1.6 | 0.00 | 0.00 | 0.00 | 56 | 1018.5 |
| 20260503054532 | 17 | 192 | 0.0 | 1.6 | 0.00 | 0.00 | 0.00 | 56 | 1018.5 |
| 20260503054517 | 17 | 194 | 0.0 | 1.6 | 0.00 | 0.00 | 0.00 | 56 | 1018.8 |
| 20260503054202 | 17 | 195 | 0.0 | 1.6 | 0.00 | 0.00 | 0.00 | 57 | 1018.4 |
| 20260503054101 | 17 | 191 | 0.0 | 1.6 | 0.00 | 0.00 | 0.00 | 57 | 1018.4 |
| 20260503054002 | 17 | 196 | 0.0 | 1.6 | 0.00 | 0.00 | 0.00 | 56 | 1018.7 |
| 20260503053902 | 17 | 196 | 0.0 | 1.6 | 0.00 | 0.00 | 0.00 | 56 | 1018.7 |
| 20260503053822 | 17 | 193 | 0.0 | 1.6 | 0.00 | 0.00 | 0.00 | 56 | 1018.7 |
| 20260503053803 | 17 | 190 | 0.0 | 1.6 | 0.00 | 0.00 | 0.00 | 56 | 1018.7 |
| 20260503053658 | 17 | 188 | 0.0 | 1.6 | 0.00 | 0.00 | 0.00 | 55 | 1018.4 |
| 20260503053610 | 17 | 188 | 0.0 | 1.6 | 0.00 | 0.00 | 0.00 | 56 | 1018.5 |
| 20260503053605 | 17 | 189 | 0.0 | 1.6 | 0.00 | 0.00 | 0.00 | 56 | 1018.5 |
| 20260503053550 | 17 | 189 | 0.0 | 1.6 | 0.00 | 0.00 | 0.00 | 56 | 1018.4 |
| 20260503053534 | 17 | 190 | 0.0 | 1.6 | 0.00 | 0.00 | 0.00 | 57 | 1018.7 |
| 20260503053255 | 17 | 187 | 0.0 | 1.6 | 0.00 | 0.00 | 0.00 | 56 | 1018.5 |
| 20260503053155 | 17 | 195 | 0.0 | 1.6 | 0.00 | 0.00 | 0.00 | 54 | 1018.8 |
| 20260503053055 | 17 | 189 | 0.0 | 0.0 | 0.00 | 0.00 | 0.00 | 55 | 1018.8 |
| 20260503052955 | 17 | 185 | 0.0 | 0.0 | 0.00 | 0.00 | 0.00 | 55 | 1018.4 |
| 20260503052934 | 16 | 184 | 0.0 | 0.0 | 0.00 | 0.00 | 0.00 | 56 | 1018.5 |
| 20260503052919 | 16 | 184 | 0.0 | 0.0 | 0.00 | 0.00 | 0.00 | 57 | 1018.4 |
| 20260503052911 | 16 | 184 | 0.0 | 0.0 | 0.00 | 0.00 | 0.00 | 57 | 1018.4 |
| 20260503052552 | 16 | 181 | 0.0 | 0.0 | 0.00 | 0.00 | 0.00 | 58 | 1018.5 |
| 20260503052444 | 16 | 181 | 0.0 | 1.6 | 0.00 | 0.00 | 0.00 | 58 | 1018.7 |
| 20260503052340 | 15 | 181 | 0.0 | 1.6 | 0.00 | 0.00 | 0.00 | 59 | 1018.7 |
| 20260503052312 | 15 | 180 | 0.0 | 1.6 | 0.00 | 0.00 | 0.00 | 59 | 1018.3 |
| 20260503052239 | 15 | 180 | 0.0 | 1.6 | 0.00 | 0.00 | 0.00 | 59 | 1018.5 |
| 20260503052140 | 15 | 186 | 0.0 | 1.6 | 0.00 | 0.00 | 0.00 | 60 | 1018.5 |
| 20260503052039 | 14 | 186 | 0.0 | 1.6 | 0.00 | 0.00 | 0.00 | 61 | 1018.3 |
| 20260503051941 | 14 | 173 | 0.0 | 1.6 | 0.00 | 0.00 | 0.00 | 63 | 1018.5 |
| 20260503051840 | 14 | 148 | 0.0 | 1.6 | 0.00 | 0.00 | 0.00 | 62 | 1018.8 |
| 20260503051811 | 14 | 160 | 0.0 | 1.6 | 0.00 | 0.00 | 0.00 | 61 | 1018.8 |
| 20260503051758 | 13 | 177 | 0.0 | 1.6 | 0.00 | 0.00 | 0.00 | 65 | 1018.7 |
| 20260503051751 | 14 | 161 | 0.0 | 1.6 | 0.00 | 0.00 | 0.00 | 62 | 1018.4 |
| 20260503051736 | 14 | 165 | 0.0 | 1.6 | 0.00 | 0.00 | 0.00 | 63 | 1018.5 |
| 20260503051720 | 14 | 108 | 0.0 | 1.6 | 0.00 | 0.00 | 0.00 | 62 | 1018.7 |
| 20260503051704 | 14 | 161 | 0.0 | 1.6 | 0.00 | 0.00 | 0.00 | 61 | 1018.7 |
| 20260503051649 | 13 | 176 | 0.0 | 1.6 | 0.00 | 0.00 | 0.00 | 63 | 1018.8 |
| 20260503051635 | 13 | 173 | 0.0 | 1.6 | 0.00 | 0.00 | 0.00 | 63 | 1018.8 |
| 20260503051624 | 13 | 105 | 0.0 | 1.6 | 0.00 | 0.00 | 0.00 | 63 | 1018.8 |
| 20260503051608 | 13 | 173 | 0.0 | 1.6 | 0.00 | 0.00 | 0.00 | 63 | 1018.4 |
| 20260503051552 | 13 | 172 | 0.0 | 1.6 | 0.00 | 0.00 | 0.00 | 63 | 1018.4 |
| 20260503051535 | 13 | 90 | 0.0 | 1.6 | 0.00 | 0.00 | 0.00 | 63 | 1018.7 |
| 20260503051519 | 13 | 162 | 0.0 | 1.6 | 0.00 | 0.00 | 0.00 | 63 | 1018.4 |
| 20260503051505 | 13 | 162 | 0.0 | 1.6 | 0.00 | 0.00 | 0.00 | 63 | 1018.4 |
| 20260503051456 | 13 | 160 | 0.0 | 1.6 | 0.00 | 0.00 | 0.00 | 63 | 1018.4 |
| 20260503051000 | 13 | 161 | 0.0 | 1.6 | 0.00 | 0.00 | 0.00 | 64 | 1018.5 |
| 20260503050511 | 13 | 173 | 0.0 | 1.6 | 0.00 | 0.00 | 0.00 | 64 | 1018.5 |
| 20260503050456 | 13 | 153 | 0.0 | 0.0 | 0.00 | 0.00 | 0.00 | 64 | 1018.7 |
| 20260503050439 | 13 | 170 | 0.0 | 0.0 | 0.00 | 0.00 | 0.00 | 64 | 1018.7 |
| 20260503045946 | 13 | 160 | 0.0 | 1.6 | 0.00 | 0.00 | 0.00 | 64 | 1018.5 |
| 20260503045707 | 12 | 167 | 0.0 | 1.6 | 0.00 | 0.00 | 0.00 | 65 | 1018.5 |
| 20260503045651 | 12 | 160 | 0.0 | 1.6 | 0.00 | 0.00 | 0.00 | 65 | 1018.4 |
| 20260503045359 | 12 | 156 | 0.0 | 1.6 | 0.00 | 0.00 | 0.00 | 67 | 1018.7 |
| 20260503045352 | 12 | 164 | 0.0 | 1.6 | 0.00 | 0.00 | 0.00 | 66 | 1018.7 |
| 20260503045338 | 12 | 162 | 0.0 | 1.6 | 0.00 | 0.00 | 0.00 | 66 | 1018.7 |
| 20260503045327 | 12 | 161 | 0.0 | 1.6 | 0.00 | 0.00 | 0.00 | 66 | 1018.7 |
| 20260503045311 | 12 | 160 | 0.0 | 1.6 | 0.00 | 0.00 | 0.00 | 66 | 1018.5 |
| 20260503045255 | 12 | 152 | 0.0 | 1.6 | 0.00 | 0.00 | 0.00 | 66 | 1018.7 |
| 20260503045239 | 12 | 156 | 0.0 | 1.6 | 0.00 | 0.00 | 0.00 | 67 | 1018.4 |
| 20260503044720 | 12 | 145 | 0.0 | 1.6 | 0.00 | 0.00 | 0.00 | 67 | 1018.4 |
| 20260503044620 | 12 | 150 | 0.0 | 1.6 | 0.00 | 0.00 | 0.00 | 66 | 1018.5 |
| 20260503044520 | 12 | 160 | 0.0 | 1.6 | 0.00 | 0.00 | 0.00 | 66 | 1018.5 |
| 20260503044420 | 12 | 157 | 0.0 | 1.6 | 0.00 | 0.00 | 0.00 | 66 | 1018.4 |
| 20260503044320 | 12 | 165 | 0.0 | 0.0 | 0.00 | 0.00 | 0.00 | 66 | 1018.5 |
| 20260503044304 | 12 | 165 | 0.0 | 0.0 | 0.00 | 0.00 | 0.00 | 67 | 1018.5 |
| 20260503044219 | 12 | 164 | 0.0 | 0.0 | 0.00 | 0.00 | 0.00 | 68 | 1018.4 |
| 20260503044118 | 12 | 165 | 0.0 | 0.0 | 0.00 | 0.00 | 0.00 | 68 | 1018.3 |
| 20260503044054 | 12 | 168 | 0.0 | 0.0 | 0.00 | 0.00 | 0.00 | 65 | 1018.5 |
| 20260503044046 | 12 | 166 | 0.0 | 0.0 | 0.00 | 0.00 | 0.00 | 67 | 1018.5 |
| 20260503044031 | 12 | 167 | 0.0 | 0.0 | 0.00 | 0.00 | 0.00 | 66 | 1018.8 |
| 20260503044013 | 12 | 168 | 0.0 | 0.0 | 0.00 | 0.00 | 0.00 | 65 | 1018.5 |
| 20260503043713 | 12 | 168 | 0.0 | 0.0 | 0.00 | 0.00 | 0.00 | 66 | 1018.7 |
| 20260503043613 | 12 | 168 | 0.0 | 0.0 | 0.00 | 0.00 | 0.00 | 65 | 1018.4 |
| 20260503043549 | 12 | 167 | 0.0 | 0.0 | 0.00 | 0.00 | 0.00 | 65 | 1018.5 |
| 20260503043533 | 12 | 165 | 0.0 | 0.0 | 0.00 | 0.00 | 0.00 | 66 | 1018.4 |
| 20260503043517 | 12 | 163 | 0.0 | 0.0 | 0.00 | 0.00 | 0.00 | 66 | 1018.4 |
| 20260503043505 | 12 | 162 | 0.0 | 0.0 | 0.00 | 0.00 | 0.00 | 66 | 1018.4 |
| 20260503043453 | 12 | 161 | 0.0 | 0.0 | 0.00 | 0.00 | 0.00 | 66 | 1018.3 |
| 20260503043437 | 11 | 162 | 0.0 | 0.0 | 0.00 | 0.00 | 0.00 | 66 | 1018.5 |
| 20260503043202 | 11 | 161 | 0.0 | 0.0 | 0.00 | 0.00 | 0.00 | 67 | 1018.4 |
| 20260503042930 | 11 | 161 | 0.0 | 0.0 | 0.00 | 0.00 | 0.00 | 67 | 1018.4 |
| 20260503042613 | 11 | 162 | 0.0 | 1.6 | 0.00 | 0.00 | 0.00 | 68 | 1018.5 |
| 20260503042545 | 11 | 161 | 0.0 | 1.6 | 0.00 | 0.00 | 0.00 | 67 | 1018.2 |
| 20260503042528 | 11 | 161 | 0.0 | 1.6 | 0.00 | 0.00 | 0.00 | 67 | 1018.4 |
| 20260503042248 | 11 | 161 | 0.0 | 1.6 | 0.00 | 0.00 | 0.00 | 68 | 1018.3 |
| 20260503042204 | 11 | 161 | 0.0 | 1.6 | 0.00 | 0.00 | 0.00 | 68 | 1018.4 |
| 20260503042104 | 11 | 157 | 0.0 | 1.6 | 0.00 | 0.00 | 0.00 | 68 | 1018.3 |
| 20260503042004 | 11 | 158 | 0.0 | 1.6 | 0.00 | 0.00 | 0.00 | 68 | 1018.5 |
| 20260503041903 | 11 | 159 | 0.0 | 1.6 | 0.00 | 0.00 | 0.00 | 69 | 1018.2 |
| 20260503041750 | 11 | 159 | 0.0 | 1.6 | 0.00 | 0.00 | 0.00 | 70 | 1018.5 |
| 20260503041650 | 10 | 156 | 0.0 | 1.6 | 0.00 | 0.00 | 0.00 | 69 | 1018.4 |
| 20260503041550 | 10 | 163 | 0.0 | 1.6 | 0.00 | 0.00 | 0.00 | 69 | 1018.3 |
| 20260503041450 | 10 | 163 | 0.0 | 1.6 | 0.00 | 0.00 | 0.00 | 69 | 1018.5 |
| 20260503041349 | 10 | 163 | 0.0 | 1.6 | 0.00 | 0.00 | 0.00 | 70 | 1018.2 |
| 20260503041250 | 10 | 163 | 0.0 | 1.6 | 0.00 | 0.00 | 0.00 | 70 | 1018.3 |
| 20260503041146 | 10 | 163 | 0.0 | 1.6 | 0.00 | 0.00 | 0.00 | 70 | 1018.3 |
| 20260503041120 | 10 | 164 | 0.0 | 1.6 | 0.00 | 0.00 | 0.00 | 70 | 1018.0 |
| 20260503041105 | 10 | 164 | 0.0 | 1.6 | 0.00 | 0.00 | 0.00 | 70 | 1018.3 |
| 20260503040744 | 10 | 163 | 0.0 | 1.6 | 0.00 | 0.00 | 0.00 | 70 | 1018.3 |
| 20260503040645 | 10 | 167 | 0.0 | 1.6 | 0.00 | 0.00 | 0.00 | 70 | 1018.1 |
| 20260503040544 | 10 | 166 | 0.0 | 1.6 | 0.00 | 0.00 | 0.00 | 70 | 1018.1 |
| 20260503040444 | 10 | 167 | 0.0 | 0.0 | 0.00 | 0.00 | 0.00 | 71 | 1018.3 |
| 20260503040343 | 10 | 168 | 0.0 | 0.0 | 0.00 | 0.00 | 0.00 | 71 | 1018.2 |
| 20260503040244 | 10 | 168 | 0.0 | 0.0 | 0.00 | 0.00 | 0.00 | 71 | 1018.4 |
| 20260503040159 | 10 | 167 | 0.0 | 0.0 | 0.00 | 0.00 | 0.00 | 71 | 1018.3 |
| 20260503040144 | 10 | 167 | 0.0 | 0.0 | 0.00 | 0.00 | 0.00 | 71 | 1018.2 |
| 20260503035820 | 10 | 167 | 0.0 | 0.0 | 0.00 | 0.00 | 0.00 | 72 | 1018.3 |
| 20260503035740 | 10 | 168 | 0.0 | 0.0 | 0.00 | 0.00 | 0.00 | 72 | 1018.3 |
| 20260503035720 | 10 | 168 | 0.0 | 0.0 | 0.00 | 0.00 | 0.00 | 72 | 1018.2 |
| 20260503035618 | 10 | 168 | 0.0 | 0.0 | 0.00 | 0.00 | 0.00 | 72 | 1018.2 |
| 20260503035552 | 10 | 167 | 0.0 | 0.0 | 0.00 | 0.00 | 0.00 | 72 | 1018.2 |
| 20260503035535 | 10 | 168 | 0.0 | 0.0 | 0.00 | 0.00 | 0.00 | 72 | 1017.9 |
| 20260503035235 | 10 | 168 | 0.0 | 0.0 | 0.00 | 0.00 | 0.00 | 72 | 1018.0 |
| 20260503035214 | 9 | 168 | 0.0 | 0.0 | 0.00 | 0.00 | 0.00 | 72 | 1018.0 |
| 20260503035116 | 9 | 168 | 0.0 | 0.0 | 0.00 | 0.00 | 0.00 | 72 | 1018.3 |
| 20260503035015 | 9 | 168 | 0.0 | 0.0 | 0.00 | 0.00 | 0.00 | 72 | 1018.1 |
| 20260503034915 | 9 | 168 | 0.0 | 1.6 | 0.00 | 0.00 | 0.00 | 72 | 1018.4 |
| 20260503034842 | 9 | 168 | 0.0 | 1.6 | 0.00 | 0.00 | 0.00 | 72 | 1018.2 |
| 20260503034820 | 9 | 167 | 0.0 | 1.6 | 0.00 | 0.00 | 0.00 | 72 | 1018.3 |
| 20260503034804 | 9 | 167 | 0.0 | 1.6 | 0.00 | 0.00 | 0.00 | 72 | 1018.3 |
| 20260503034527 | 9 | 166 | 0.0 | 1.6 | 0.00 | 0.00 | 0.00 | 72 | 1018.0 |
| 20260503034230 | 9 | 167 | 0.0 | 1.6 | 0.00 | 0.00 | 0.00 | 72 | 1018.3 |
| 20260503034157 | 9 | 168 | 0.0 | 1.6 | 0.00 | 0.00 | 0.00 | 72 | 1018.3 |
| 20260503034057 | 9 | 168 | 0.0 | 1.6 | 0.00 | 0.00 | 0.00 | 72 | 1018.2 |
| 20260503033957 | 9 | 167 | 0.0 | 1.6 | 0.00 | 0.00 | 0.00 | 72 | 1018.3 |
| 20260503033856 | 9 | 168 | 0.0 | 1.6 | 0.00 | 0.00 | 0.00 | 72 | 1018.3 |
| 20260503033756 | 10 | 168 | 0.0 | 1.6 | 0.00 | 0.00 | 0.00 | 72 | 1018.3 |
| 20260503033741 | 10 | 167 | 0.0 | 1.6 | 0.00 | 0.00 | 0.00 | 72 | 1018.3 |
| 20260503033656 | 10 | 167 | 0.0 | 1.6 | 0.00 | 0.00 | 0.00 | 72 | 1018.2 |
| 20260503033545 | 10 | 168 | 0.0 | 1.6 | 0.00 | 0.00 | 0.00 | 72 | 1018.4 |
| 20260503033518 | 9 | 166 | 0.0 | 1.6 | 0.00 | 0.00 | 0.00 | 72 | 1018.2 |
| 20260503033502 | 9 | 171 | 0.0 | 0.0 | 0.00 | 0.00 | 0.00 | 72 | 1018.4 |
| 20260503033435 | 10 | 171 | 0.0 | 0.0 | 0.00 | 0.00 | 0.00 | 72 | 1018.4 |
| 20260503033203 | 10 | 171 | 0.0 | 0.0 | 0.00 | 0.00 | 0.00 | 71 | 1018.3 |
| 20260503032930 | 10 | 177 | 0.0 | 0.0 | 0.00 | 0.00 | 0.00 | 72 | 1018.1 |
| 20260503032924 | 9 | 171 | 0.0 | 0.0 | 0.00 | 0.00 | 0.00 | 72 | 1018.2 |
| 20260503032920 | 10 | 171 | 0.0 | 0.0 | 0.00 | 0.00 | 0.00 | 72 | 1018.1 |
| 20260503032913 | 9 | 175 | 0.0 | 0.0 | 0.00 | 0.00 | 0.00 | 72 | 1017.9 |
| 20260503032905 | 10 | 171 | 0.0 | 0.0 | 0.00 | 0.00 | 0.00 | 71 | 1018.2 |
| 20260503032848 | 10 | 171 | 0.0 | 0.0 | 0.00 | 0.00 | 0.00 | 71 | 1018.2 |
| 20260503032838 | 10 | 171 | 0.0 | 0.0 | 0.00 | 0.00 | 0.00 | 71 | 1018.1 |
| 20260503032826 | 10 | 171 | 0.0 | 0.0 | 0.00 | 0.00 | 0.00 | 72 | 1018.3 |
| 20260503032811 | 9 | 171 | 0.0 | 0.0 | 0.00 | 0.00 | 0.00 | 72 | 1018.2 |
| 20260503032755 | 9 | 172 | 0.0 | 0.0 | 0.00 | 0.00 | 0.00 | 72 | 1018.1 |
| 20260503032739 | 9 | 172 | 0.0 | 0.0 | 0.00 | 0.00 | 0.00 | 72 | 1018.1 |
| 20260503032250 | 9 | 172 | 0.0 | 0.0 | 0.00 | 0.00 | 0.00 | 72 | 1018.1 |
| 20260503032235 | 9 | 172 | 0.0 | 0.0 | 0.00 | 0.00 | 0.00 | 72 | 1018.0 |
| 20260503032219 | 9 | 172 | 0.0 | 0.0 | 0.00 | 0.00 | 0.00 | 72 | 1018.0 |
| 20260503032203 | 9 | 172 | 0.0 | 0.0 | 0.00 | 0.00 | 0.00 | 72 | 1018.1 |
| 20260503031716 | 10 | 171 | 0.0 | 0.0 | 0.00 | 0.00 | 0.00 | 72 | 1018.2 |
| 20260503031700 | 10 | 171 | 0.0 | 0.0 | 0.00 | 0.00 | 0.00 | 72 | 1017.9 |
| 20260503031436 | 10 | 169 | 0.0 | 0.0 | 0.00 | 0.00 | 0.00 | 72 | 1018.1 |
| 20260503031419 | 9 | 170 | 0.0 | 0.0 | 0.00 | 0.00 | 0.00 | 72 | 1018.1 |
| 20260503031350 | 9 | 171 | 0.0 | 0.0 | 0.00 | 0.00 | 0.00 | 72 | 1018.0 |
| 20260503031338 | 9 | 171 | 0.0 | 0.0 | 0.00 | 0.00 | 0.00 | 72 | 1018.0 |
| 20260503031104 | 9 | 172 | 0.0 | 0.0 | 0.00 | 0.00 | 0.00 | 72 | 1018.2 |
| 20260503030821 | 9 | 174 | 0.0 | 0.0 | 0.00 | 0.00 | 0.00 | 72 | 1018.1 |
| 20260503030753 | 9 | 173 | 0.0 | 0.0 | 0.00 | 0.00 | 0.00 | 72 | 1018.1 |
| 20260503030736 | 9 | 175 | 0.0 | 0.0 | 0.00 | 0.00 | 0.00 | 72 | 1018.1 |
| 20260503030720 | 9 | 175 | 0.0 | 0.0 | 0.00 | 0.00 | 0.00 | 72 | 1018.0 |
| 20260503030705 | 9 | 175 | 0.0 | 0.0 | 0.00 | 0.00 | 0.00 | 72 | 1017.9 |
| 20260503030647 | 9 | 175 | 0.0 | 0.0 | 0.00 | 0.00 | 0.00 | 72 | 1017.9 |
| 20260503030419 | 9 | 176 | 0.0 | 0.0 | 0.00 | 0.00 | 0.00 | 72 | 1017.8 |
| 20260503030405 | 9 | 175 | 0.0 | 0.0 | 0.00 | 0.00 | 0.00 | 72 | 1017.9 |
| 20260503025902 | 10 | 177 | 0.0 | 0.0 | 0.00 | 0.00 | 0.00 | 72 | 1018.0 |
| 20260503025845 | 10 | 177 | 0.0 | 0.0 | 0.00 | 0.00 | 0.00 | 72 | 1018.0 |
| 20260503025830 | 10 | 178 | 0.0 | 0.0 | 0.00 | 0.00 | 0.00 | 72 | 1018.0 |
| 20260503025554 | 10 | 178 | 0.0 | 0.0 | 0.00 | 0.00 | 0.00 | 72 | 1017.9 |
| 20260503025536 | 10 | 177 | 0.0 | 0.0 | 0.00 | 0.00 | 0.00 | 72 | 1018.1 |
| 20260503024957 | 10 | 179 | 0.0 | 0.0 | 0.00 | 0.00 | 0.00 | 71 | 1017.8 |
| 20260503024852 | 10 | 179 | 0.0 | 0.0 | 0.00 | 0.00 | 0.00 | 72 | 1017.9 |
| 20260503024750 | 10 | 180 | 0.0 | 0.0 | 0.00 | 0.00 | 0.00 | 71 | 1018.0 |
| 20260503024649 | 10 | 180 | 0.0 | 0.0 | 0.00 | 0.00 | 0.00 | 71 | 1018.2 |
| 20260503024537 | 10 | 180 | 0.0 | 0.0 | 0.00 | 0.00 | 0.00 | 72 | 1018.0 |
| 20260503024437 | 10 | 180 | 0.0 | 0.0 | 0.00 | 0.00 | 0.00 | 72 | 1018.2 |
| 20260503024338 | 10 | 180 | 0.0 | 0.0 | 0.00 | 0.00 | 0.00 | 72 | 1018.2 |
| 20260503024233 | 10 | 181 | 0.0 | 0.0 | 0.00 | 0.00 | 0.00 | 71 | 1018.1 |
| 20260503024133 | 10 | 181 | 0.0 | 0.0 | 0.00 | 0.00 | 0.00 | 72 | 1018.1 |
| 20260503024109 | 10 | 166 | 0.0 | 1.6 | 0.00 | 0.00 | 0.00 | 71 | 1018.1 |
| 20260503024059 | 10 | 181 | 0.0 | 0.0 | 0.00 | 0.00 | 0.00 | 72 | 1018.0 |
| 20260503024044 | 10 | 181 | 0.0 | 0.0 | 0.00 | 0.00 | 0.00 | 72 | 1017.9 |
| 20260503024028 | 10 | 178 | 0.0 | 0.0 | 0.00 | 0.00 | 0.00 | 71 | 1018.1 |
| 20260503023804 | 10 | 178 | 0.0 | 0.0 | 0.00 | 0.00 | 0.00 | 71 | 1018.2 |
| 20260503023750 | 10 | 178 | 0.0 | 0.0 | 0.00 | 0.00 | 0.00 | 71 | 1018.2 |
| 20260503023742 | 10 | 178 | 0.0 | 1.6 | 0.00 | 0.00 | 0.00 | 71 | 1018.1 |
| 20260503023725 | 10 | 178 | 0.0 | 1.6 | 0.00 | 0.00 | 0.00 | 71 | 1018.1 |
| 20260503023710 | 10 | 177 | 0.0 | 1.6 | 0.00 | 0.00 | 0.00 | 71 | 1017.9 |
| 20260503023654 | 10 | 176 | 0.0 | 1.6 | 0.00 | 0.00 | 0.00 | 71 | 1017.9 |
| 20260503023638 | 10 | 174 | 0.0 | 1.6 | 0.00 | 0.00 | 0.00 | 71 | 1018.0 |
| 20260503023624 | 10 | 172 | 0.0 | 1.6 | 0.00 | 0.00 | 0.00 | 71 | 1018.0 |
| 20260503023614 | 10 | 171 | 0.0 | 1.6 | 0.00 | 0.00 | 0.00 | 71 | 1018.0 |
| 20260503023558 | 10 | 170 | 0.0 | 1.6 | 0.00 | 0.00 | 0.00 | 71 | 1018.0 |
| 20260503023103 | 10 | 166 | 0.0 | 1.6 | 0.00 | 0.00 | 0.00 | 71 | 1018.1 |
| 20260503022530 | 10 | 164 | 0.0 | 1.6 | 0.00 | 0.00 | 0.00 | 71 | 1018.0 |
| 20260503022410 | 10 | 163 | 0.0 | 1.6 | 0.00 | 0.00 | 0.00 | 71 | 1018.2 |
| 20260503022354 | 10 | 160 | 0.0 | 1.6 | 0.00 | 0.00 | 0.00 | 71 | 1018.2 |
| 20260503022338 | 10 | 153 | 0.0 | 1.6 | 0.00 | 0.00 | 0.00 | 72 | 1018.0 |
| 20260503022324 | 10 | 155 | 0.0 | 1.6 | 0.00 | 0.00 | 0.00 | 72 | 1018.0 |
| 20260503022009 | 10 | 159 | 0.0 | 1.6 | 0.00 | 0.00 | 0.00 | 72 | 1018.0 |
| 20260503021934 | 10 | 159 | 0.0 | 1.6 | 0.00 | 0.00 | 0.00 | 72 | 1018.2 |
| 20260503021918 | 10 | 159 | 0.0 | 3.2 | 0.00 | 0.00 | 0.00 | 71 | 1018.1 |
| 20260503021902 | 10 | 158 | 0.0 | 3.2 | 0.00 | 0.00 | 0.00 | 71 | 1018.2 |
| 20260503021848 | 10 | 155 | 0.0 | 3.2 | 0.00 | 0.00 | 0.00 | 71 | 1018.2 |
| 20260503021618 | 10 | 161 | 0.0 | 3.2 | 0.00 | 0.00 | 0.00 | 71 | 1018.1 |
| 20260503021257 | 10 | 164 | 0.0 | 4.8 | 0.00 | 0.00 | 0.00 | 71 | 1018.2 |
| 20260503021157 | 10 | 162 | 0.0 | 4.8 | 0.00 | 0.00 | 0.00 | 71 | 1018.2 |
| 20260503021130 | 10 | 156 | 0.0 | 4.8 | 0.00 | 0.00 | 0.00 | 71 | 1018.1 |
| 20260503021057 | 10 | 152 | 0.0 | 4.8 | 0.00 | 0.00 | 0.00 | 71 | 1018.1 |
| 20260503020956 | 10 | 140 | 0.0 | 4.8 | 0.00 | 0.00 | 0.00 | 71 | 1018.1 |
| 20260503020855 | 10 | 132 | 1.6 | 4.8 | 0.00 | 0.00 | 0.00 | 71 | 1018.3 |
| 20260503020752 | 10 | 114 | 1.6 | 4.8 | 0.00 | 0.00 | 0.00 | 72 | 1018.0 |
| 20260503020649 | 10 | 97 | 1.6 | 4.8 | 0.00 | 0.00 | 0.00 | 72 | 1018.0 |
| 20260503020621 | 10 | 64 | 3.2 | 4.8 | 0.00 | 0.00 | 0.00 | 72 | 1018.0 |
| 20260503020548 | 10 | 100 | 1.6 | 4.8 | 0.00 | 0.00 | 0.00 | 72 | 1018.0 |
| 20260503020450 | 10 | 82 | 3.2 | 4.8 | 0.00 | 0.00 | 0.00 | 72 | 1018.0 |
| 20260503020348 | 10 | 96 | 3.2 | 4.8 | 0.00 | 0.00 | 0.00 | 72 | 1018.2 |
| 20260503020317 | 9 | 70 | 1.6 | 3.2 | 0.00 | 0.00 | 0.00 | 75 | 1018.2 |
| 20260503020311 | 10 | 64 | 3.2 | 4.8 | 0.00 | 0.00 | 0.00 | 73 | 1018.3 |
| 20260503020305 | 10 | 76 | 3.2 | 4.8 | 0.00 | 0.00 | 0.00 | 72 | 1018.0 |
| 20260503020248 | 10 | 66 | 4.8 | 4.8 | 0.00 | 0.00 | 0.00 | 73 | 1018.1 |
| 20260503020233 | 10 | 62 | 3.2 | 4.8 | 0.00 | 0.00 | 0.00 | 73 | 1018.1 |
| 20260503020224 | 10 | 68 | 3.2 | 4.8 | 0.00 | 0.00 | 0.00 | 73 | 1018.1 |
| 20260503020000 | 10 | 67 | 3.2 | 4.8 | 0.00 | 0.00 | 0.00 | 73 | 1018.0 |
| 20260503015943 | 10 | 86 | 3.2 | 4.8 | 0.00 | 0.00 | 0.00 | 73 | 1018.0 |
| 20260503015928 | 10 | 68 | 1.6 | 4.8 | 0.00 | 0.00 | 0.00 | 73 | 1018.2 |
| 20260503015912 | 10 | 67 | 3.2 | 4.8 | 0.00 | 0.00 | 0.00 | 73 | 1018.2 |
| 20260503015645 | 10 | 77 | 1.6 | 4.8 | 0.00 | 0.00 | 0.00 | 73 | 1018.3 |
| 20260503015629 | 10 | 94 | 1.6 | 3.2 | 0.00 | 0.00 | 0.00 | 73 | 1018.0 |
| 20260503015612 | 9 | 68 | 3.2 | 3.2 | 0.00 | 0.00 | 0.00 | 74 | 1018.1 |
| 20260503015336 | 9 | 68 | 1.6 | 3.2 | 0.00 | 0.00 | 0.00 | 75 | 1018.0 |
| 20260503015044 | 9 | 78 | 1.6 | 3.2 | 0.00 | 0.00 | 0.00 | 75 | 1018.2 |
| 20260503014944 | 9 | 104 | 3.2 | 3.2 | 0.00 | 0.00 | 0.00 | 76 | 1017.9 |
| 20260503014844 | 8 | 128 | 1.6 | 1.6 | 0.00 | 0.00 | 0.00 | 76 | 1018.3 |
| 20260503014743 | 8 | 128 | 1.6 | 1.6 | 0.00 | 0.00 | 0.00 | 76 | 1018.0 |
| 20260503014642 | 8 | 133 | 1.6 | 1.6 | 0.00 | 0.00 | 0.00 | 77 | 1018.2 |
| 20260503014616 | 8 | 133 | 1.6 | 1.6 | 0.00 | 0.00 | 0.00 | 77 | 1018.1 |
| 20260503014543 | 8 | 136 | 1.6 | 1.6 | 0.00 | 0.00 | 0.00 | 77 | 1018.1 |
| 20260503014443 | 8 | 137 | 0.0 | 1.6 | 0.00 | 0.00 | 0.00 | 78 | 1018.4 |
| 20260503014343 | 8 | 148 | 1.6 | 1.6 | 0.00 | 0.00 | 0.00 | 78 | 1018.2 |
| 20260503014234 | 8 | 168 | 0.0 | 1.6 | 0.00 | 0.00 | 0.00 | 78 | 1018.2 |
| 20260503014132 | 8 | 163 | 0.0 | 1.6 | 0.00 | 0.00 | 0.00 | 78 | 1018.3 |
| 20260503014116 | 8 | 155 | 0.0 | 1.6 | 0.00 | 0.00 | 0.00 | 78 | 1018.3 |
| 20260503014031 | 8 | 150 | 1.6 | 1.6 | 0.00 | 0.00 | 0.00 | 78 | 1018.3 |
| 20260503014004 | 8 | 167 | 0.0 | 1.6 | 0.00 | 0.00 | 0.00 | 77 | 1018.3 |
| 20260503013948 | 8 | 164 | 0.0 | 1.6 | 0.00 | 0.00 | 0.00 | 77 | 1018.1 |
| 20260503013610 | 9 | 175 | 0.0 | 1.6 | 0.00 | 0.00 | 0.00 | 76 | 1018.3 |
| 20260503013526 | 9 | 174 | 0.0 | 1.6 | 0.00 | 0.00 | 0.00 | 76 | 1018.1 |
| 20260503013427 | 9 | 171 | 0.0 | 1.6 | 0.00 | 0.00 | 0.00 | 76 | 1018.3 |
| 20260503013329 | 9 | 171 | 0.0 | 1.6 | 0.00 | 0.00 | 0.00 | 75 | 1018.3 |
| 20260503013313 | 9 | 170 | 0.0 | 1.6 | 0.00 | 0.00 | 0.00 | 76 | 1018.2 |
| 20260503013257 | 9 | 169 | 0.0 | 1.6 | 0.00 | 0.00 | 0.00 | 75 | 1018.2 |
| 20260503013242 | 9 | 167 | 0.0 | 1.6 | 0.00 | 0.00 | 0.00 | 75 | 1018.2 |
| 20260503012925 | 9 | 154 | 1.6 | 1.6 | 0.00 | 0.00 | 0.00 | 76 | 1018.3 |
| 20260503012822 | 10 | 172 | 0.0 | 1.6 | 0.00 | 0.00 | 0.00 | 74 | 1018.1 |
| 20260503012721 | 10 | 172 | 0.0 | 1.6 | 0.00 | 0.00 | 0.00 | 73 | 1018.1 |
| 20260503012605 | 10 | 172 | 0.0 | 1.6 | 0.00 | 0.00 | 0.00 | 72 | 1018.4 |
| 20260503012521 | 10 | 170 | 0.0 | 1.6 | 0.00 | 0.00 | 0.00 | 71 | 1018.3 |
| 20260503012421 | 10 | 165 | 0.0 | 1.6 | 0.00 | 0.00 | 0.00 | 71 | 1018.5 |
| 20260503012321 | 10 | 163 | 0.0 | 1.6 | 0.00 | 0.00 | 0.00 | 70 | 1017.9 |
| 20260503012221 | 10 | 160 | 0.0 | 1.6 | 0.00 | 0.00 | 0.00 | 70 | 1018.1 |
| 20260503012119 | 10 | 159 | 0.0 | 1.6 | 0.00 | 0.00 | 0.00 | 70 | 1018.4 |
| 20260503012104 | 10 | 158 | 0.0 | 1.6 | 0.00 | 0.00 | 0.00 | 70 | 1018.4 |
| 20260503012019 | 10 | 158 | 0.0 | 1.6 | 0.00 | 0.00 | 0.00 | 70 | 1018.4 |
| 20260503011919 | 10 | 157 | 0.0 | 1.6 | 0.00 | 0.00 | 0.00 | 70 | 1018.3 |
| 20260503011843 | 10 | 160 | 0.0 | 1.6 | 0.00 | 0.00 | 0.00 | 70 | 1018.1 |
| 20260503011827 | 10 | 159 | 0.0 | 1.6 | 0.00 | 0.00 | 0.00 | 70 | 1018.4 |
| 20260503011601 | 10 | 158 | 0.0 | 1.6 | 0.00 | 0.00 | 0.00 | 70 | 1018.4 |
| 20260503011503 | 10 | 158 | 0.0 | 1.6 | 0.00 | 0.00 | 0.00 | 70 | 1018.5 |
| 20260503011401 | 10 | 161 | 0.0 | 1.6 | 0.00 | 0.00 | 0.00 | 70 | 1018.4 |
| 20260503011256 | 10 | 161 | 0.0 | 1.6 | 0.00 | 0.00 | 0.00 | 70 | 1018.4 |
| 20260503011156 | 10 | 162 | 0.0 | 1.6 | 0.00 | 0.00 | 0.00 | 70 | 1018.3 |
| 20260503011058 | 10 | 161 | 0.0 | 1.6 | 0.00 | 0.00 | 0.00 | 70 | 1018.3 |
| 20260503010956 | 10 | 161 | 0.0 | 1.6 | 0.00 | 0.00 | 0.00 | 70 | 1018.3 |
| 20260503010858 | 10 | 160 | 0.0 | 1.6 | 0.00 | 0.00 | 0.00 | 70 | 1018.4 |
| 20260503010756 | 10 | 159 | 0.0 | 1.6 | 0.00 | 0.00 | 0.00 | 70 | 1018.4 |
| 20260503010738 | 10 | 157 | 0.0 | 1.6 | 0.00 | 0.00 | 0.00 | 70 | 1018.2 |
| 20260503010715 | 11 | 153 | 0.0 | 1.6 | 0.00 | 0.00 | 0.00 | 70 | 1018.4 |
| 20260503010431 | 11 | 146 | 1.6 | 3.2 | 0.00 | 0.00 | 0.00 | 70 | 1018.3 |
| 20260503010415 | 11 | 149 | 0.0 | 3.2 | 0.00 | 0.00 | 0.00 | 70 | 1018.3 |
| 20260503010109 | 11 | 145 | 1.6 | 3.2 | 0.00 | 0.00 | 0.00 | 70 | 1018.3 |
| 20260503005955 | 11 | 133 | 0.0 | 3.2 | 0.00 | 0.00 | 0.00 | 70 | 1018.1 |
| 20260503005855 | 11 | 140 | 1.6 | 3.2 | 0.00 | 0.00 | 0.00 | 70 | 1018.3 |
| 20260503005753 | 11 | 148 | 0.0 | 3.2 | 0.00 | 0.00 | 0.00 | 70 | 1018.1 |
| 20260503005652 | 11 | 135 | 1.6 | 3.2 | 0.00 | 0.00 | 0.00 | 70 | 1018.3 |
| 20260503005549 | 11 | 152 | 0.0 | 3.2 | 0.00 | 0.00 | 0.00 | 70 | 1018.4 |
| 20260503005445 | 11 | 129 | 1.6 | 3.2 | 0.00 | 0.00 | 0.00 | 70 | 1018.5 |
| 20260503005344 | 11 | 135 | 1.6 | 3.2 | 0.00 | 0.00 | 0.00 | 70 | 1018.5 |
| 20260503005326 | 11 | 154 | 0.0 | 3.2 | 0.00 | 0.00 | 0.00 | 69 | 1018.2 |
| 20260503005310 | 11 | 154 | 1.6 | 1.6 | 0.00 | 0.00 | 0.00 | 70 | 1018.2 |
| 20260503005042 | 11 | 170 | 0.0 | 0.0 | 0.00 | 0.00 | 0.00 | 70 | 1018.4 |
| 20260503004735 | 11 | 150 | 1.6 | 1.6 | 0.00 | 0.00 | 0.00 | 70 | 1018.5 |
| 20260503004636 | 11 | 170 | 0.0 | 1.6 | 0.00 | 0.00 | 0.00 | 70 | 1018.4 |
| 20260503004535 | 11 | 174 | 0.0 | 1.6 | 0.00 | 0.00 | 0.00 | 70 | 1018.7 |
| 20260503004501 | 11 | 173 | 0.0 | 1.6 | 0.00 | 0.00 | 0.00 | 70 | 1018.7 |
| 20260503004430 | 10 | 174 | 0.0 | 1.6 | 0.00 | 0.00 | 0.00 | 70 | 1018.5 |
| 20260503004330 | 10 | 175 | 0.0 | 1.6 | 0.00 | 0.00 | 0.00 | 70 | 1018.4 |
| 20260503004229 | 10 | 177 | 0.0 | 0.0 | 0.00 | 0.00 | 0.00 | 70 | 1018.2 |
| 20260503004130 | 10 | 175 | 0.0 | 0.0 | 0.00 | 0.00 | 0.00 | 70 | 1018.5 |
| 20260503004029 | 10 | 174 | 0.0 | 0.0 | 0.00 | 0.00 | 0.00 | 70 | 1018.5 |
| 20260503004012 | 10 | 174 | 0.0 | 0.0 | 0.00 | 0.00 | 0.00 | 71 | 1018.5 |
| 20260503004005 | 10 | 173 | 0.0 | 0.0 | 0.00 | 0.00 | 0.00 | 71 | 1018.3 |
| 20260503003949 | 10 | 172 | 0.0 | 0.0 | 0.00 | 0.00 | 0.00 | 71 | 1018.5 |
| 20260503003629 | 10 | 172 | 0.0 | 0.0 | 0.00 | 0.00 | 0.00 | 72 | 1018.5 |
| 20260503003529 | 10 | 171 | 0.0 | 1.6 | 0.00 | 0.00 | 0.00 | 72 | 1018.2 |
| 20260503003449 | 10 | 171 | 0.0 | 1.6 | 0.00 | 0.00 | 0.00 | 73 | 1018.2 |
| 20260503003428 | 10 | 171 | 0.0 | 1.6 | 0.00 | 0.00 | 0.00 | 73 | 1018.4 |
| 20260503003328 | 10 | 171 | 0.0 | 1.6 | 0.00 | 0.00 | 0.00 | 73 | 1018.7 |
| 20260503003228 | 10 | 170 | 0.0 | 1.6 | 0.00 | 0.00 | 0.00 | 74 | 1018.4 |
| 20260503003128 | 10 | 171 | 0.0 | 1.6 | 0.00 | 0.00 | 0.00 | 74 | 1018.3 |
| 20260503003028 | 10 | 172 | 0.0 | 1.6 | 0.00 | 0.00 | 0.00 | 73 | 1018.4 |
| 20260503002948 | 10 | 172 | 0.0 | 1.6 | 0.00 | 0.00 | 0.00 | 72 | 1018.4 |
| 20260503002919 | 10 | 173 | 0.0 | 1.6 | 0.00 | 0.00 | 0.00 | 72 | 1018.5 |
| 20260503002817 | 10 | 172 | 0.0 | 1.6 | 0.00 | 0.00 | 0.00 | 71 | 1018.5 |
| 20260503002713 | 10 | 171 | 0.0 | 1.6 | 0.00 | 0.00 | 0.00 | 70 | 1018.4 |
| 20260503002647 | 10 | 171 | 1.6 | 1.6 | 0.00 | 0.00 | 0.00 | 70 | 1018.4 |
| 20260503002631 | 10 | 175 | 0.0 | 0.0 | 0.00 | 0.00 | 0.00 | 71 | 1018.7 |
| 20260503002619 | 10 | 175 | 0.0 | 0.0 | 0.00 | 0.00 | 0.00 | 71 | 1018.7 |
| 20260503002306 | 10 | 175 | 0.0 | 0.0 | 0.00 | 0.00 | 0.00 | 71 | 1018.5 |
| 20260503002207 | 10 | 174 | 0.0 | 0.0 | 0.00 | 0.00 | 0.00 | 72 | 1018.4 |
| 20260503002106 | 10 | 174 | 0.0 | 0.0 | 0.00 | 0.00 | 0.00 | 72 | 1018.7 |
| 20260503002005 | 10 | 174 | 0.0 | 0.0 | 0.00 | 0.00 | 0.00 | 72 | 1018.5 |
| 20260503001930 | 10 | 174 | 0.0 | 0.0 | 0.00 | 0.00 | 0.00 | 72 | 1018.5 |
| 20260503001905 | 10 | 174 | 0.0 | 0.0 | 0.00 | 0.00 | 0.00 | 73 | 1018.8 |
| 20260503001806 | 10 | 174 | 0.0 | 0.0 | 0.00 | 0.00 | 0.00 | 73 | 1018.3 |
| 20260503001705 | 10 | 174 | 0.0 | 0.0 | 0.00 | 0.00 | 0.00 | 73 | 1018.4 |
| 20260503001606 | 9 | 174 | 0.0 | 0.0 | 0.00 | 0.00 | 0.00 | 74 | 1018.5 |
| 20260503001533 | 9 | 174 | 0.0 | 0.0 | 0.00 | 0.00 | 0.00 | 75 | 1018.5 |
| 20260503001516 | 9 | 173 | 0.0 | 0.0 | 0.00 | 0.00 | 0.00 | 75 | 1018.5 |
| 20260503001506 | 9 | 173 | 0.0 | 0.0 | 0.00 | 0.00 | 0.00 | 75 | 1018.5 |
| 20260503001143 | 10 | 165 | 0.0 | 0.0 | 0.00 | 0.00 | 0.00 | 75 | 1018.5 |
| 20260503001124 | 10 | 164 | 0.0 | 0.0 | 0.00 | 0.00 | 0.00 | 74 | 1018.3 |
| 20260503001108 | 10 | 163 | 0.0 | 1.6 | 0.00 | 0.00 | 0.00 | 73 | 1018.3 |
| 20260503001057 | 10 | 163 | 0.0 | 1.6 | 0.00 | 0.00 | 0.00 | 73 | 1018.4 |
| 20260503000742 | 11 | 163 | 0.0 | 1.6 | 0.00 | 0.00 | 0.00 | 72 | 1018.7 |
| 20260503000644 | 11 | 163 | 0.0 | 1.6 | 0.00 | 0.00 | 0.00 | 71 | 1018.4 |
| 20260503000544 | 11 | 158 | 0.0 | 1.6 | 0.00 | 0.00 | 0.00 | 70 | 1018.3 |
| 20260503000442 | 11 | 157 | 0.0 | 1.6 | 0.00 | 0.00 | 0.00 | 68 | 1018.4 |
| 20260503000422 | 11 | 157 | 0.0 | 1.6 | 0.00 | 0.00 | 0.00 | 68 | 1018.5 |
| 20260503000415 | 11 | 157 | 0.0 | 1.6 | 0.00 | 0.00 | 0.00 | 67 | 1018.3 |
| 20260503000355 | 11 | 153 | 0.0 | 1.6 | 0.00 | 0.00 | 0.00 | 67 | 1018.4 |
| 20260503000034 | 11 | 152 | 0.0 | 1.6 | 0.00 | 0.00 | 0.00 | 67 | 1018.7 |
| 20260503000005 | 10 | 147 | 1.6 | 3.2 | 0.00 | 0.00 | 0.00 | 72 | 1018.8 |
| 20260503000000 | 11 | 158 | 0.0 | 3.2 | 0.00 | 0.00 | 0.00 | 69 | 1018.9 |
| 20260502235953 | 11 | 155 | 0.0 | 1.6 | 0.00 | 0.00 | 0.00 | 67 | 1018.7 |
| 20260502235939 | 11 | 155 | 0.0 | 1.6 | 0.00 | 0.00 | 0.00 | 66 | 1018.7 |
| 20260502235930 | 12 | 154 | 0.0 | 1.6 | 0.00 | 0.00 | 0.00 | 66 | 1018.8 |
| 20260502235914 | 12 | 154 | 0.0 | 1.6 | 0.00 | 0.00 | 0.00 | 66 | 1018.5 |
| 20260502235858 | 12 | 154 | 0.0 | 1.6 | 0.00 | 0.00 | 0.00 | 66 | 1018.7 |
| 20260502235842 | 12 | 157 | 0.0 | 1.6 | 0.00 | 0.00 | 0.00 | 66 | 1018.3 |
| 20260502235826 | 12 | 156 | 0.0 | 1.6 | 0.00 | 0.00 | 0.00 | 66 | 1018.7 |
| 20260502235813 | 12 | 157 | 0.0 | 1.6 | 0.00 | 0.00 | 0.00 | 66 | 1018.7 |
| 20260502235541 | 12 | 153 | 0.0 | 1.6 | 0.00 | 0.00 | 0.00 | 66 | 1018.5 |
| 20260502235525 | 11 | 153 | 0.0 | 1.6 | 0.00 | 0.00 | 0.00 | 66 | 1018.9 |
| 20260502235510 | 11 | 150 | 0.0 | 1.6 | 0.00 | 0.00 | 0.00 | 66 | 1018.7 |
| 20260502235453 | 11 | 164 | 0.0 | 1.6 | 0.00 | 0.00 | 0.00 | 67 | 1018.8 |
| 20260502235441 | 11 | 167 | 0.0 | 1.6 | 0.00 | 0.00 | 0.00 | 67 | 1018.8 |
| 20260502235212 | 11 | 169 | 0.0 | 1.6 | 0.00 | 0.00 | 0.00 | 67 | 1018.5 |
| 20260502235156 | 11 | 168 | 0.0 | 1.6 | 0.00 | 0.00 | 0.00 | 67 | 1018.8 |
| 20260502234920 | 11 | 170 | 0.0 | 1.6 | 0.00 | 0.00 | 0.00 | 68 | 1018.7 |
| 20260502234859 | 11 | 168 | 0.0 | 1.6 | 0.00 | 0.00 | 0.00 | 68 | 1018.7 |
| 20260502234841 | 11 | 169 | 0.0 | 1.6 | 0.00 | 0.00 | 0.00 | 69 | 1018.9 |
| 20260502234825 | 11 | 169 | 0.0 | 1.6 | 0.00 | 0.00 | 0.00 | 70 | 1018.7 |
| 20260502234809 | 10 | 161 | 0.0 | 1.6 | 0.00 | 0.00 | 0.00 | 70 | 1018.8 |
| 20260502234322 | 10 | 167 | 0.0 | 3.2 | 0.00 | 0.00 | 0.00 | 73 | 1018.7 |
| 20260502234307 | 10 | 163 | 0.0 | 3.2 | 0.00 | 0.00 | 0.00 | 72 | 1018.9 |
| 20260502233309 | 11 | 157 | 0.0 | 3.2 | 0.00 | 0.00 | 0.00 | 68 | 1018.8 |
| 20260502233245 | 12 | 157 | 0.0 | 3.2 | 0.00 | 0.00 | 0.00 | 67 | 1018.8 |
| 20260502233230 | 12 | 152 | 0.0 | 3.2 | 0.00 | 0.00 | 0.00 | 66 | 1018.7 |
| 20260502233215 | 12 | 146 | 0.0 | 3.2 | 0.00 | 0.00 | 0.00 | 65 | 1018.8 |
| 20260502233159 | 12 | 159 | 0.0 | 1.6 | 0.00 | 0.00 | 0.00 | 66 | 1018.7 |
| 20260502233146 | 12 | 160 | 0.0 | 1.6 | 0.00 | 0.00 | 0.00 | 66 | 1018.7 |
| 20260502232608 | 12 | 162 | 0.0 | 1.6 | 0.00 | 0.00 | 0.00 | 65 | 1018.9 |
| 20260502232507 | 12 | 163 | 0.0 | 1.6 | 0.00 | 0.00 | 0.00 | 64 | 1018.7 |
| 20260502232439 | 12 | 167 | 0.0 | 0.0 | 0.00 | 0.00 | 0.00 | 64 | 1018.8 |
| 20260502232425 | 12 | 166 | 0.0 | 1.6 | 0.00 | 0.00 | 0.00 | 64 | 1018.8 |
| 20260502232414 | 12 | 166 | 0.0 | 1.6 | 0.00 | 0.00 | 0.00 | 64 | 1018.8 |
| 20260502232358 | 12 | 165 | 0.0 | 1.6 | 0.00 | 0.00 | 0.00 | 64 | 1018.9 |
| 20260502232123 | 12 | 165 | 0.0 | 1.6 | 0.00 | 0.00 | 0.00 | 64 | 1018.8 |
| 20260502232108 | 12 | 164 | 0.0 | 1.6 | 0.00 | 0.00 | 0.00 | 64 | 1018.7 |
| 20260502232056 | 12 | 164 | 0.0 | 1.6 | 0.00 | 0.00 | 0.00 | 64 | 1019.0 |
| 20260502232046 | 12 | 163 | 0.0 | 1.6 | 0.00 | 0.00 | 0.00 | 64 | 1019.0 |
| 20260502231812 | 12 | 161 | 0.0 | 1.6 | 0.00 | 0.00 | 0.00 | 64 | 1018.8 |
| 20260502231539 | 12 | 157 | 0.0 | 1.6 | 0.00 | 0.00 | 0.00 | 65 | 1018.7 |
| 20260502231228 | 12 | 162 | 0.0 | 1.6 | 0.00 | 0.00 | 0.00 | 65 | 1018.9 |
| 20260502231126 | 12 | 163 | 0.0 | 1.6 | 0.00 | 0.00 | 0.00 | 65 | 1018.8 |
| 20260502231024 | 12 | 163 | 0.0 | 1.6 | 0.00 | 0.00 | 0.00 | 65 | 1018.8 |
| 20260502230925 | 12 | 163 | 0.0 | 1.6 | 0.00 | 0.00 | 0.00 | 65 | 1018.8 |
| 20260502230832 | 12 | 163 | 0.0 | 1.6 | 0.00 | 0.00 | 0.00 | 65 | 1019.0 |
| 20260502230824 | 12 | 162 | 0.0 | 1.6 | 0.00 | 0.00 | 0.00 | 65 | 1019.0 |
| 20260502230722 | 12 | 163 | 0.0 | 1.6 | 0.00 | 0.00 | 0.00 | 65 | 1018.7 |
| 20260502230657 | 12 | 164 | 0.0 | 1.6 | 0.00 | 0.00 | 0.00 | 66 | 1019.1 |
| 20260502230641 | 12 | 161 | 0.0 | 1.6 | 0.00 | 0.00 | 0.00 | 66 | 1018.9 |
| 20260502230402 | 12 | 159 | 0.0 | 1.6 | 0.00 | 0.00 | 0.00 | 64 | 1019.0 |
| 20260502230347 | 12 | 160 | 0.0 | 1.6 | 0.00 | 0.00 | 0.00 | 66 | 1018.9 |
| 20260502230330 | 12 | 164 | 0.0 | 1.6 | 0.00 | 0.00 | 0.00 | 66 | 1018.8 |
| 20260502230314 | 12 | 163 | 0.0 | 1.6 | 0.00 | 0.00 | 0.00 | 66 | 1019.0 |
| 20260502230258 | 12 | 160 | 0.0 | 1.6 | 0.00 | 0.00 | 0.00 | 65 | 1018.8 |
| 20260502230242 | 12 | 160 | 0.0 | 1.6 | 0.00 | 0.00 | 0.00 | 65 | 1019.0 |
| 20260502225711 | 12 | 158 | 0.0 | 1.6 | 0.00 | 0.00 | 0.00 | 63 | 1018.8 |
| 20260502225611 | 12 | 157 | 0.0 | 1.6 | 0.00 | 0.00 | 0.00 | 63 | 1018.9 |
| 20260502225511 | 12 | 153 | 0.0 | 1.6 | 0.00 | 0.00 | 0.00 | 63 | 1018.9 |
| 20260502225411 | 12 | 156 | 0.0 | 0.0 | 0.00 | 0.00 | 0.00 | 63 | 1018.9 |
| 20260502225311 | 12 | 160 | 0.0 | 0.0 | 0.00 | 0.00 | 0.00 | 63 | 1019.1 |
| 20260502225212 | 12 | 157 | 0.0 | 0.0 | 0.00 | 0.00 | 0.00 | 63 | 1018.9 |
| 20260502225112 | 12 | 163 | 0.0 | 0.0 | 0.00 | 0.00 | 0.00 | 63 | 1019.0 |
| 20260502225012 | 12 | 165 | 0.0 | 1.6 | 0.00 | 0.00 | 0.00 | 62 | 1019.0 |
| 20260502224911 | 12 | 166 | 0.0 | 1.6 | 0.00 | 0.00 | 0.00 | 62 | 1019.1 |
| 20260502224850 | 12 | 167 | 0.0 | 1.6 | 0.00 | 0.00 | 0.00 | 62 | 1019.0 |
| 20260502224835 | 12 | 166 | 0.0 | 1.6 | 0.00 | 0.00 | 0.00 | 62 | 1019.0 |
| 20260502224603 | 12 | 170 | 0.0 | 3.2 | 0.00 | 0.00 | 0.00 | 62 | 1019.1 |
| 20260502224556 | 12 | 167 | 0.0 | 1.6 | 0.00 | 0.00 | 0.00 | 62 | 1019.1 |
| 20260502224540 | 12 | 170 | 0.0 | 1.6 | 0.00 | 0.00 | 0.00 | 63 | 1019.1 |
| 20260502224311 | 12 | 170 | 0.0 | 3.2 | 0.00 | 0.00 | 0.00 | 62 | 1019.1 |
| 20260502224249 | 13 | 170 | 0.0 | 3.2 | 0.00 | 0.00 | 0.00 | 62 | 1019.3 |
| 20260502224232 | 13 | 172 | 0.0 | 3.2 | 0.00 | 0.00 | 0.00 | 62 | 1019.2 |
| 20260502223910 | 13 | 155 | 0.0 | 3.2 | 0.00 | 0.00 | 0.00 | 61 | 1019.0 |
| 20260502223854 | 13 | 132 | 0.0 | 4.8 | 0.00 | 0.00 | 0.00 | 61 | 1019.1 |
| 20260502223838 | 13 | 152 | 0.0 | 3.2 | 0.00 | 0.00 | 0.00 | 61 | 1019.3 |
| 20260502223823 | 13 | 143 | 0.0 | 3.2 | 0.00 | 0.00 | 0.00 | 61 | 1019.2 |
| 20260502223806 | 13 | 147 | 0.0 | 3.2 | 0.00 | 0.00 | 0.00 | 61 | 1019.1 |
| 20260502223532 | 13 | 115 | 1.6 | 4.8 | 0.00 | 0.00 | 0.00 | 61 | 1019.0 |
| 20260502223252 | 13 | 114 | 0.0 | 4.8 | 0.00 | 0.00 | 0.00 | 61 | 1019.1 |
| 20260502223154 | 13 | 102 | 1.6 | 4.8 | 0.00 | 0.00 | 0.00 | 61 | 1019.2 |
| 20260502223052 | 13 | 89 | 1.6 | 4.8 | 0.00 | 0.00 | 0.00 | 62 | 1019.0 |
| 20260502223035 | 13 | 91 | 1.6 | 4.8 | 0.00 | 0.00 | 0.00 | 62 | 1019.2 |
| 20260502223019 | 13 | 101 | 1.6 | 4.8 | 0.00 | 0.00 | 0.00 | 62 | 1019.0 |
| 20260502223005 | 13 | 101 | 0.0 | 4.8 | 0.00 | 0.00 | 0.00 | 62 | 1018.9 |
| 20260502222724 | 13 | 66 | 3.2 | 4.8 | 0.00 | 0.00 | 0.00 | 62 | 1019.2 |
| 20260502222709 | 13 | 85 | 1.6 | 4.8 | 0.00 | 0.00 | 0.00 | 61 | 1019.2 |
| 20260502222348 | 13 | 67 | 3.2 | 4.8 | 0.00 | 0.00 | 0.00 | 61 | 1018.9 |
| 20260502222308 | 13 | 75 | 1.6 | 4.8 | 0.00 | 0.00 | 0.00 | 61 | 1019.0 |
| 20260502222247 | 13 | 74 | 1.6 | 4.8 | 0.00 | 0.00 | 0.00 | 61 | 1019.0 |
| 20260502222221 | 13 | 73 | 3.2 | 4.8 | 0.00 | 0.00 | 0.00 | 61 | 1019.0 |
| 20260502222206 | 13 | 111 | 1.6 | 3.2 | 0.00 | 0.00 | 0.00 | 61 | 1019.1 |
| 20260502221932 | 13 | 149 | 0.0 | 3.2 | 0.00 | 0.00 | 0.00 | 59 | 1019.1 |
| 20260502221926 | 13 | 148 | 0.0 | 3.2 | 0.00 | 0.00 | 0.00 | 59 | 1019.2 |
| 20260502221918 | 13 | 128 | 1.6 | 3.2 | 0.00 | 0.00 | 0.00 | 61 | 1019.1 |
| 20260502221903 | 13 | 131 | 1.6 | 3.2 | 0.00 | 0.00 | 0.00 | 61 | 1019.1 |
| 20260502221855 | 13 | 135 | 0.0 | 3.2 | 0.00 | 0.00 | 0.00 | 61 | 1019.1 |
| 20260502221840 | 13 | 152 | 0.0 | 1.6 | 0.00 | 0.00 | 0.00 | 60 | 1019.2 |
| 20260502221824 | 13 | 151 | 0.0 | 1.6 | 0.00 | 0.00 | 0.00 | 60 | 1019.2 |
| 20260502221807 | 13 | 152 | 1.6 | 1.6 | 0.00 | 0.00 | 0.00 | 60 | 1019.2 |
| 20260502221752 | 13 | 152 | 0.0 | 1.6 | 0.00 | 0.00 | 0.00 | 59 | 1019.1 |
| 20260502221525 | 13 | 150 | 0.0 | 3.2 | 0.00 | 0.00 | 0.00 | 59 | 1019.3 |
| 20260502221248 | 13 | 148 | 1.6 | 3.2 | 0.00 | 0.00 | 0.00 | 59 | 1019.2 |
| 20260502221012 | 13 | 148 | 0.0 | 3.2 | 0.00 | 0.00 | 0.00 | 59 | 1019.2 |
| 20260502220740 | 13 | 145 | 0.0 | 3.2 | 0.00 | 0.00 | 0.00 | 59 | 1019.3 |
| 20260502220640 | 13 | 159 | 0.0 | 3.2 | 0.00 | 0.00 | 0.00 | 60 | 1019.1 |
| 20260502220545 | 13 | 163 | 0.0 | 1.6 | 0.00 | 0.00 | 0.00 | 61 | 1019.5 |
| 20260502220540 | 13 | 158 | 0.0 | 3.2 | 0.00 | 0.00 | 0.00 | 60 | 1019.3 |
| 20260502220525 | 13 | 153 | 0.0 | 3.2 | 0.00 | 0.00 | 0.00 | 60 | 1019.3 |
| 20260502220509 | 13 | 155 | 0.0 | 1.6 | 0.00 | 0.00 | 0.00 | 60 | 1019.5 |
| 20260502220230 | 13 | 163 | 0.0 | 1.6 | 0.00 | 0.00 | 0.00 | 59 | 1019.3 |
| 20260502220123 | 13 | 164 | 0.0 | 1.6 | 0.00 | 0.00 | 0.00 | 59 | 1019.4 |
| 20260502220024 | 13 | 164 | 0.0 | 1.6 | 0.00 | 0.00 | 0.00 | 59 | 1019.4 |
| 20260502215924 | 13 | 164 | 0.0 | 1.6 | 0.00 | 0.00 | 0.00 | 59 | 1019.4 |
| 20260502215822 | 13 | 163 | 0.0 | 1.6 | 0.00 | 0.00 | 0.00 | 59 | 1019.5 |
| 20260502215743 | 13 | 163 | 0.0 | 1.6 | 0.00 | 0.00 | 0.00 | 59 | 1019.5 |
| 20260502215722 | 13 | 162 | 0.0 | 1.6 | 0.00 | 0.00 | 0.00 | 59 | 1019.4 |
| 20260502215622 | 13 | 164 | 0.0 | 1.6 | 0.00 | 0.00 | 0.00 | 59 | 1019.3 |
| 20260502215522 | 13 | 164 | 0.0 | 1.6 | 0.00 | 0.00 | 0.00 | 59 | 1019.2 |
| 20260502215423 | 13 | 151 | 0.0 | 1.6 | 0.00 | 0.00 | 0.00 | 59 | 1019.1 |
| 20260502215338 | 13 | 145 | 0.0 | 1.6 | 0.00 | 0.00 | 0.00 | 60 | 1019.3 |
| 20260502215324 | 13 | 155 | 0.0 | 1.6 | 0.00 | 0.00 | 0.00 | 60 | 1019.3 |
| 20260502215314 | 13 | 154 | 0.0 | 1.6 | 0.00 | 0.00 | 0.00 | 60 | 1019.2 |
| 20260502215259 | 13 | 153 | 0.0 | 1.6 | 0.00 | 0.00 | 0.00 | 60 | 1019.2 |
| 20260502215244 | 13 | 150 | 1.6 | 1.6 | 0.00 | 0.00 | 0.00 | 60 | 1019.2 |
| 20260502215228 | 13 | 136 | 1.6 | 1.6 | 0.00 | 0.00 | 0.00 | 60 | 1019.3 |
| 20260502214955 | 13 | 143 | 0.0 | 1.6 | 0.00 | 0.00 | 0.00 | 60 | 1019.2 |
| 20260502214946 | 13 | 143 | 1.6 | 1.6 | 0.00 | 0.00 | 0.00 | 60 | 1019.3 |
| 20260502214450 | 13 | 150 | 0.0 | 1.6 | 0.00 | 0.00 | 0.00 | 60 | 1019.5 |
| 20260502214434 | 13 | 150 | 1.6 | 1.6 | 0.00 | 0.00 | 0.00 | 59 | 1019.1 |
| 20260502214421 | 13 | 150 | 0.0 | 1.6 | 0.00 | 0.00 | 0.00 | 59 | 1019.3 |
| 20260502214133 | 13 | 146 | 0.0 | 1.6 | 0.00 | 0.00 | 0.00 | 59 | 1019.4 |